                ,  0.195,  0.292,  0.389,  0.486,  0.583,  0.680,  0.777,  0.874,  0.971,  1.068,  1.165,  1.262,  1.359,  1.456,  1.553,  1.651,  1.748,  1.845,  1.942,  2.039,  2.136,  2.233,  2.330,  2.427,  2.524,  2.621,  2.718,  2.815,  2.912,  3.009,  3.106,  3.203,  3.300,  3.397,  3.494,  3.591,  3.688,  3.785,  3.882,  3.979,  4.076,  4.173,  4.270,  4.367,  4.464,  4.561,  4.658,  4.755,  4.852,  4.950,  5.047,  5.144,  5.241,  5.338,  5.435,  5.532,  5.629,  5.726,  5.823,  5.920,  6.017,  6.114,  6.211,  6.308,  6.405,  6.502,  6.599,  6.696,  6.793,  6.890,  6.987,  7.084,  7.181,  7.278,  7.375,  7.472,  7.569,  7.666,  7.763,  7.860,  7.957,  8.054,  8.151,  8.249,  8.346,  8.443,  8.540,  8.637,  8.734,  8.831,  8.928,  9.025,  9.122,  9.219,  9.316,  9.413,  9.510,  9.607
2011/01/10 00:00,   -2.8,   -3.3,   -3.2,  999.0,   -3.3,    0.2,  999.0,  999.0,  999.0,  999.0,  999.0,    1.2,  999.0,    2.3,    0.8,  999.0,    1.5,    0.3,    0.0,   -0.5,   -0.4,   -0.3,    0.2,   -0.6,   -0.5,   -0.5,   -0.0,   -0.1,  999.0,   -0.2,   -0.2,   -1.3,   -1.7,   -0.8,   -2.4,   -3.1,   -3.2,  999.0,   -4.2,   -4.7,   -4.4,  999.0,  999.0,  999.0,  999.0,   -4.0,   -4.0,  999.0,  999.0,   -4.1,   -3.7,   -4.7,  999.0,  999.0,  999.0,  999.0,  999.0,  999.0,  999.0,  999.0,  999.0,  999.0,  999.0,  999.0,  999.0,  999.0,  999.0,  999.0,  999.0,  999.0,  999.0,  999.0,  999.0,  999.0,  999.0,  999.0,  999.0,  999.0,  999.0,  999.0,  999.0,  999.0,  999.0,  999.0,  999.0,  999.0,  999.0,  999.0,   -4.0,   -2.7,   -2.0,   -0.6,  999.0,  999.0,  999.0,  999.0,  999.0,  999.0
2011/01/10 00:10,   -2.2,  999.0,   -3.0,  999.0,   -2.0,   -1.9,  999.0,  999.0,  999.0,    2.9,    3.4,  999.0,  999.0,    1.1,    1.0,  999.0,  999.0,    1.1,    1.1,    0.6,    0.1,  999.0,   -0.5,   -0.6,   -0.2,   -0.5,  999.0,   -0.6,    0.2,    0.9,    0.1,   -0.9,   -1.2,   -1.6,   -1.8,   -2.6,   -3.1,  999.0,   -3.8,   -4.4,   -4.1,   -4.8,  999.0,  999.0,  999.0,  999.0,   -3.9,  999.0,  999.0,   -3.2,   -3.6,  999.0,  999.0,   -3.7,  999.0,  999.0,  999.0,  999.0,  999.0,  999.0,  999.0,  999.0,  999.0,  999.0,  999.0,  999.0,  999.0,  999.0,  999.0,  999.0,  999.0,  999.0,  999.0,  999.0,  999.0,  999.0,  999.0,  999.0,  999.0,  999.0,  999.0,  999.0,  999.0,  999.0,  999.0,  999.0,  999.0,  999.0,   -3.6,   -2.4,   -0.8,    0.4,    1.7,    2.6,    3.5,    4.1,    5.2,  999.0
2011/01/10 00:20,  999.0,   -2.5,  999.0,   -3.0,   -3.4,   -4.0,   -2.6,   -2.2,  999.0,  999.0,  999.0,  999.0,  999.0,  999.0,  999.0,  999.0,  999.0,  999.0,    0.4,    0.6,    0.4,   -0.2,   -0.6,   -1.4,   -1.4,   -0.9,   -1.2,   -1.2,   -0.6,    0.1,    0.3,  999.0,   -0.9,   -0.9,  999.0,   -2.2,   -3.2,  999.0,  999.0,   -4.5,  999.0,   -4.9,   -5.3,   -5.9,   -5.9,  999.0,  999.0,  999.0,  999.0,  999.0,  999.0,  999.0,  999.0,   -3.5,   -4.0,  999.0,  999.0,  999.0,  999.0,  999.0,  999.0,  999.0,  999.0,  999.0,  999.0,  999.0,  999.0,  999.0,  999.0,  999.0,  999.0,  999.0,  999.0,  999.0,  999.0,  999.0,  999.0,  999.0,  999.0,  999.0,  999.0,  999.0,  999.0,  999.0,  999.0,  999.0,  999.0,  999.0,  999.0,   -0.6,    0.8,    1.7,    2.9,    3.6,    4.0,    4.4,    4.9,    5.4
2011/01/10 00:30,  999.0,   -2.9,  999.0,   -2.0,   -1.8,  999.0,   -2.7,  999.0,  999.0,  999.0,  999.0,  999.0,    0.1,  999.0,    0.1,  999.0,  999.0,  999.0,  999.0,  999.0,  999.0,   -0.7,   -0.7,   -1.5,   -1.5,   -1.4,   -1.9,   -1.2,   -0.3,    0.4,    0.0,   -1.0,   -1.4,   -2.1,  999.0,  999.0,   -3.3,  999.0,   -4.1,   -4.8,   -5.0,   -5.0,   -5.8,  999.0,   -5.8,  999.0,  999.0,  999.0,  999.0,   -3.5,  999.0,  999.0,  999.0,  999.0,  999.0,  999.0,  999.0,  999.0,  999.0,  999.0,  999.0,  999.0,  999.0,  999.0,  999.0,  999.0,  999.0,  999.0,  999.0,  999.0,  999.0,  999.0,  999.0,  999.0,  999.0,  999.0,  999.0,  999.0,  999.0,  999.0,  999.0,  999.0,  999.0,  999.0,  999.0,  999.0,  999.0,  999.0,  999.0,  999.0,  999.0,  999.0,  999.0,  999.0,    4.0,  999.0,  999.0,  999.0
2011/01/10 00:40,  999.0,   -0.5,  999.0,  999.0,   -2.2,  999.0,   -2.6,   -1.2,  999.0,  999.0,  999.0,  999.0,    0.1,   -0.3,  999.0,  999.0,    0.6,  999.0,  999.0,  999.0,  999.0,   -0.6,   -0.9,   -1.1,   -1.6,   -1.7,   -2.0,   -1.3,   -0.4,    0.4,    0.1,   -0.3,   -0.7,   -0.9,  999.0,   -2.0,  999.0,  999.0,   -3.5,   -4.2,  999.0,  999.0,  999.0,  999.0,  999.0,  999.0,  999.0,  999.0,  999.0,  999.0,   -3.9,  999.0,  999.0,  999.0,  999.0,  999.0,  999.0,  999.0,  999.0,  999.0,  999.0,  999.0,  999.0,  999.0,  999.0,  999.0,  999.0,  999.0,  999.0,  999.0,  999.0,  999.0,  999.0,  999.0,  999.0,  999.0,  999.0,  999.0,  999.0,  999.0,  999.0,  999.0,  999.0,  999.0,  999.0,  999.0,  999.0,  999.0,  999.0,  999.0,  999.0,  999.0,  999.0,  999.0,  999.0,  999.0,  999.0,  999.0
2011/01/10 00:50,  999.0,  999.0,  999.0,  999.0,  999.0,  999.0,  999.0,  999.0,  999.0,  999.0,  999.0,    0.3,  999.0,  999.0,    0.6,  999.0,  999.0,  999.0,   -0.6,   -0.4,  999.0,   -0.6,   -1.0,   -1.0,   -1.0,   -1.4,   -0.7,  999.0,    0.4,    0.2,   -0.2,   -0.6,   -1.4,   -1.7,  999.0,  999.0,  999.0,  999.0,  999.0,  999.0,  999.0,  999.0,  999.0,  999.0,  999.0,  999.0,  999.0,  999.0,  999.0,  999.0,   -4.9,  999.0,  999.0,  999.0,  999.0,  999.0,  999.0,  999.0,  999.0,  999.0,  999.0,  999.0,  999.0,  999.0,  999.0,  999.0,  999.0,  999.0,  999.0,  999.0,  999.0,  999.0,  999.0,  999.0,  999.0,  999.0,  999.0,  999.0,  999.0,  999.0,  999.0,  999.0,  999.0,  999.0,  999.0,  999.0,  999.0,  999.0,  999.0,  999.0,  999.0,  999.0,  999.0,  999.0,  999.0,  999.0,  999.0,  999.0
2011/01/10 01:00,  999.0,  999.0,  999.0,  999.0,  999.0,  999.0,  999.0,  999.0,  999.0,  999.0,  999.0,  999.0,   -1.0,  999.0,   -0.3,   -1.2,   -1.1,   -0.2,   -0.5,  999.0,  999.0,   -1.2,   -1.4,   -1.4,   -1.0,   -1.4,  999.0,    0.0,    0.5,    0.8,    0.4,   -0.2,   -0.8,   -1.2,   -1.6,   -1.9,   -2.0,  999.0,  999.0,  999.0,  999.0,  999.0,  999.0,  999.0,  999.0,  999.0,  999.0,  999.0,   -4.5,   -4.8,   -4.8,  999.0,  999.0,  999.0,  999.0,  999.0,  999.0,  999.0,  999.0,  999.0,  999.0,  999.0,  999.0,  999.0,  999.0,  999.0,  999.0,  999.0,  999.0,  999.0,  999.0,  999.0,  999.0,  999.0,  999.0,  999.0,  999.0,  999.0,  999.0,  999.0,  999.0,  999.0,  999.0,  999.0,  999.0,  999.0,  999.0,  999.0,  999.0,  999.0,  999.0,  999.0,  999.0,  999.0,  999.0,  999.0,  999.0,  999.0
2011/01/10 01:10,  999.0,  999.0,  999.0,  999.0,  999.0,  999.0,   -1.6,  999.0,  999.0,  999.0,  999.0,   -0.3,  999.0,  999.0,  999.0,  999.0,   -1.3,   -1.4,   -1.2,   -1.2,   -1.0,   -1.1,   -1.2,   -0.9,   -1.0,  999.0,  999.0,    0.5,    1.0,    1.2,    0.7,    0.5,   -0.3,   -1.2,   -1.6,   -1.8,  999.0,  999.0,  999.0,  999.0,  999.0,  999.0,  999.0,  999.0,   -6.0,  999.0,  999.0,  999.0,   -4.5,   -5.3,  999.0,  999.0,  999.0,  999.0,  999.0,  999.0,  999.0,  999.0,  999.0,  999.0,  999.0,  999.0,  999.0,  999.0,  999.0,  999.0,  999.0,  999.0,  999.0,  999.0,  999.0,  999.0,  999.0,  999.0,  999.0,  999.0,  999.0,  999.0,  999.0,  999.0,  999.0,  999.0,  999.0,  999.0,  999.0,  999.0,  999.0,  999.0,  999.0,  999.0,  999.0,  999.0,  999.0,  999.0,  999.0,  999.0,  999.0,  999.0
2011/01/10 01:20,   -1.5,  999.0,  999.0,  999.0,  999.0,  999.0,  999.0,  999.0,  999.0,  999.0,  999.0,  999.0,  999.0,  999.0,  999.0,   -1.1,   -1.5,  999.0,   -1.3,  999.0,   -1.4,   -1.5,   -1.6,   -1.4,   -1.3,  999.0,  999.0,  999.0,    0.3,    0.4,    0.3,    0.2,   -0.3,   -1.0,   -1.7,   -1.9,  999.0,  999.0,  999.0,  999.0,  999.0,  999.0,  999.0,  999.0,  999.0,  999.0,  999.0,   -4.0,  999.0,   -4.6,  999.0,  999.0,   -4.6,  999.0,  999.0,  999.0,  999.0,  999.0,  999.0,  999.0,  999.0,  999.0,  999.0,  999.0,  999.0,  999.0,  999.0,  999.0,  999.0,  999.0,  999.0,  999.0,  999.0,  999.0,  999.0,  999.0,  999.0,  999.0,  999.0,  999.0,  999.0,  999.0,  999.0,  999.0,  999.0,  999.0,  999.0,  999.0,  999.0,  999.0,  999.0,  999.0,  999.0,  999.0,  999.0,  999.0,  999.0,  999.0
2011/01/10 01:30,  999.0,  999.0,  999.0,  999.0,   -2.7,  999.0,  999.0,  999.0,  999.0,  999.0,  999.0,  999.0,  999.0,  999.0,  999.0,  999.0,   -0.3,  999.0,   -1.0,  999.0,   -1.3,   -1.4,   -1.6,   -1.2,   -1.0,  999.0,  999.0,  999.0,    0.5,    0.4,    0.0,   -0.2,   -0.8,   -1.2,   -1.6,  999.0,  999.0,  999.0,   -1.7,  999.0,  999.0,  999.0,  999.0,  999.0,  999.0,  999.0,  999.0,  999.0,   -3.9,   -5.0,  999.0,  999.0,  999.0,  999.0,  999.0,  999.0,  999.0,  999.0,  999.0,  999.0,  999.0,  999.0,  999.0,  999.0,  999.0,  999.0,  999.0,  999.0,  999.0,  999.0,  999.0,  999.0,  999.0,  999.0,  999.0,  999.0,  999.0,  999.0,  999.0,  999.0,  999.0,  999.0,  999.0,  999.0,  999.0,  999.0,  999.0,  999.0,  999.0,  999.0,  999.0,  999.0,  999.0,  999.0,  999.0,  999.0,  999.0,  999.0
2011/01/10 01:40,  999.0,  999.0,  999.0,  999.0,  999.0,  999.0,  999.0,  999.0,  999.0,  999.0,  999.0,  999.0,  999.0,  999.0,  999.0,  999.0,  999.0,   -0.5,   -1.3,  999.0,  999.0,   -1.3,   -1.6,   -1.3,   -1.5,  999.0,  999.0,   -0.3,    0.2,    0.5,  999.0,   -0.6,   -0.7,   -0.9,  999.0,  999.0,  999.0,  999.0,  999.0,  999.0,  999.0,  999.0,  999.0,  999.0,  999.0,  999.0,  999.0,  999.0,   -3.6,   -4.5,  999.0,  999.0,  999.0,  999.0,  999.0,  999.0,  999.0,  999.0,  999.0,  999.0,  999.0,  999.0,  999.0,  999.0,  999.0,  999.0,  999.0,  999.0,  999.0,  999.0,  999.0,  999.0,  999.0,  999.0,  999.0,  999.0,  999.0,  999.0,  999.0,  999.0,  999.0,  999.0,  999.0,  999.0,  999.0,  999.0,  999.0,  999.0,  999.0,  999.0,  999.0,  999.0,  999.0,  999.0,  999.0,  999.0,  999.0,  999.0
2011/01/10 01:50,   -0.7,  999.0,  999.0,  999.0,  999.0,   -2.2,   -1.8,  999.0,  999.0,  999.0,   -0.3,   -0.5,   -0.6,    0.1,    0.1,    0.6,    0.5,    0.2,   -0.6,   -0.8,   -1.2,   -1.4,   -1.8,   -1.4,  999.0,  999.0,   -0.8,   -0.4,    0.2,    0.5,  999.0,  999.0,   -0.6,   -0.7,   -1.1,   -1.3,  999.0,  999.0,  999.0,  999.0,  999.0,  999.0,  999.0,  999.0,  999.0,  999.0,  999.0,  999.0,  999.0,  999.0,  999.0,  999.0,  999.0,  999.0,  999.0,  999.0,  999.0,  999.0,  999.0,  999.0,  999.0,  999.0,  999.0,  999.0,  999.0,  999.0,  999.0,  999.0,  999.0,  999.0,  999.0,  999.0,  999.0,  999.0,  999.0,  999.0,  999.0,  999.0,  999.0,  999.0,  999.0,  999.0,  999.0,  999.0,  999.0,  999.0,  999.0,  999.0,  999.0,  999.0,  999.0,  999.0,  999.0,  999.0,  999.0,  999.0,  999.0,  999.0
2011/01/10 02:00,  999.0,   -1.5,   -1.1,   -1.5,   -1.9,  999.0,   -1.4,   -0.5,  999.0,  999.0,    0.3,   -0.2,   -0.6,   -0.4,   -0.9,   -0.1,    0.0,    0.1,   -0.1,   -0.4,   -0.7,   -1.0,   -1.6,   -2.2,   -1.4,   -2.4,   -1.6,   -0.4,    0.1,    0.2,    0.3,   -0.4,   -0.4,   -0.8,  999.0,  999.0,  999.0,  999.0,  999.0,  999.0,  999.0,  999.0,  999.0,  999.0,  999.0,  999.0,  999.0,  999.0,  999.0,  999.0,  999.0,  999.0,  999.0,  999.0,  999.0,  999.0,  999.0,  999.0,  999.0,  999.0,  999.0,  999.0,  999.0,  999.0,  999.0,  999.0,  999.0,  999.0,  999.0,  999.0,  999.0,  999.0,  999.0,  999.0,  999.0,  999.0,  999.0,  999.0,  999.0,  999.0,  999.0,  999.0,  999.0,  999.0,  999.0,  999.0,  999.0,  999.0,  999.0,  999.0,  999.0,  999.0,  999.0,  999.0,  999.0,  999.0,  999.0,  999.0
2011/01/10 02:10,   -1.1,   -1.6,   -1.5,  999.0,   -2.2,  999.0,   -1.4,   -0.8,  999.0,  999.0,    0.5,    0.3,  999.0,    0.2,   -0.3,   -1.0,   -1.4,   -1.3,   -0.7,   -0.8,   -1.1,   -1.1,   -1.5,   -1.6,   -1.7,   -2.1,   -1.8,   -0.8,    0.3,    0.3,    0.5,   -0.4,   -0.0,  999.0,   -1.2,  999.0,  999.0,  999.0,  999.0,  999.0,  999.0,  999.0,  999.0,  999.0,  999.0,  999.0,  999.0,  999.0,  999.0,  999.0,  999.0,  999.0,  999.0,  999.0,  999.0,  999.0,  999.0,  999.0,  999.0,  999.0,  999.0,  999.0,  999.0,  999.0,  999.0,  999.0,  999.0,  999.0,  999.0,  999.0,  999.0,  999.0,  999.0,  999.0,  999.0,  999.0,  999.0,  999.0,  999.0,  999.0,  999.0,  999.0,  999.0,  999.0,  999.0,  999.0,  999.0,  999.0,  999.0,  999.0,  999.0,  999.0,  999.0,  999.0,  999.0,  999.0,  999.0,  999.0
2011/01/10 02:20,  999.0,   -1.2,  999.0,  999.0,  999.0,  999.0,  999.0,   -1.0,  999.0,    1.4,    1.4,    0.9,    0.2,   -0.4,   -0.5,    0.0,   -1.3,   -1.6,   -1.8,   -1.9,   -1.8,   -2.3,   -1.6,   -1.9,   -2.2,   -2.6,   -2.1,   -0.6,   -0.2,    0.4,  999.0,  999.0,   -0.2,   -0.8,   -1.6,   -2.8,  999.0,  999.0,  999.0,  999.0,  999.0,  999.0,  999.0,  999.0,  999.0,  999.0,  999.0,  999.0,  999.0,  999.0,  999.0,  999.0,  999.0,  999.0,  999.0,  999.0,  999.0,  999.0,  999.0,  999.0,  999.0,  999.0,  999.0,  999.0,  999.0,  999.0,  999.0,  999.0,  999.0,  999.0,  999.0,  999.0,  999.0,  999.0,  999.0,  999.0,  999.0,  999.0,  999.0,  999.0,  999.0,  999.0,  999.0,   -3.7,   -3.3,  999.0,  999.0,  999.0,  999.0,  999.0,  999.0,  999.0,  999.0,  999.0,  999.0,  999.0,  999.0,  999.0
2011/01/10 02:30,  999.0,   -0.5,  999.0,  999.0,    0.4,    1.6,   -0.7,  999.0,    0.8,    1.4,    1.5,    1.2,    0.8,    0.1,   -0.0,   -0.3,   -1.4,   -1.5,   -1.9,   -3.2,   -2.4,   -1.5,   -1.2,   -1.4,   -1.8,   -2.0,   -1.7,   -0.9,   -0.2,   -0.3,   -0.4,   -0.3,   -0.4,   -0.9,   -1.7,  999.0,  999.0,  999.0,  999.0,  999.0,  999.0,  999.0,  999.0,  999.0,  999.0,  999.0,  999.0,  999.0,  999.0,  999.0,  999.0,  999.0,  999.0,  999.0,  999.0,  999.0,  999.0,  999.0,  999.0,  999.0,  999.0,  999.0,  999.0,  999.0,  999.0,  999.0,  999.0,  999.0,  999.0,  999.0,  999.0,  999.0,  999.0,  999.0,  999.0,  999.0,  999.0,   -1.8,  999.0,   -2.6,   -3.2,   -3.3,   -3.2,   -2.7,   -2.7,  999.0,  999.0,  999.0,  999.0,  999.0,  999.0,  999.0,  999.0,  999.0,  999.0,  999.0,  999.0,  999.0
2011/01/10 02:40,  999.0,  999.0,   -0.8,  999.0,  999.0,   -1.6,   -1.3,   -0.6,    0.4,  999.0,  999.0,    0.9,    0.5,    0.2,   -0.0,   -1.1,   -2.2,   -1.4,   -1.3,   -2.0,  999.0,   -3.2,   -2.8,   -2.9,   -2.9,   -2.9,   -1.5,   -1.2,   -0.7,   -0.5,   -0.9,   -0.1,   -0.2,   -1.2,   -1.6,  999.0,   -3.7,  999.0,  999.0,   -3.3,   -4.0,  999.0,  999.0,  999.0,  999.0,  999.0,  999.0,  999.0,  999.0,  999.0,  999.0,  999.0,  999.0,  999.0,  999.0,  999.0,  999.0,  999.0,  999.0,  999.0,  999.0,  999.0,  999.0,  999.0,  999.0,  999.0,  999.0,  999.0,  999.0,  999.0,  999.0,  999.0,  999.0,  999.0,  999.0,  999.0,  999.0,  999.0,  999.0,  999.0,  999.0,  999.0,  999.0,  999.0,  999.0,  999.0,  999.0,  999.0,  999.0,  999.0,  999.0,  999.0,  999.0,  999.0,  999.0,  999.0,  999.0,  999.0
2011/01/10 02:50,  999.0,   -2.1,   -1.2,   -1.7,   -2.5,  999.0,   -0.3,   -0.1,    0.7,  999.0,    1.4,  999.0,   -0.6,   -0.3,   -0.7,   -0.9,   -1.5,   -1.5,   -1.3,   -1.9,   -2.2,   -1.9,   -1.8,   -1.8,   -2.1,   -2.0,   -1.7,   -1.9,   -1.3,   -0.9,   -1.1,  999.0,  999.0,  999.0,   -2.1,  999.0,  999.0,  999.0,  999.0,   -3.4,  999.0,  999.0,  999.0,  999.0,  999.0,  999.0,  999.0,  999.0,  999.0,  999.0,  999.0,  999.0,  999.0,  999.0,  999.0,  999.0,  999.0,  999.0,  999.0,  999.0,  999.0,  999.0,  999.0,  999.0,  999.0,  999.0,  999.0,  999.0,  999.0,  999.0,  999.0,  999.0,  999.0,  999.0,  999.0,  999.0,  999.0,  999.0,  999.0,  999.0,  999.0,  999.0,  999.0,  999.0,  999.0,  999.0,  999.0,  999.0,  999.0,  999.0,  999.0,  999.0,  999.0,  999.0,  999.0,  999.0,  999.0,  999.0
2011/01/10 03:00,  999.0,  999.0,  999.0,  999.0,  999.0,  999.0,  999.0,    0.2,  999.0,    0.4,    1.1,    1.0,    0.9,    0.6,    0.5,   -0.2,   -0.8,   -1.0,   -1.2,   -1.4,   -2.1,   -2.6,   -2.9,   -3.2,   -3.0,   -2.8,   -3.2,   -3.2,   -2.8,   -2.2,   -1.6,   -1.3,   -1.1,   -1.2,  999.0,  999.0,  999.0,  999.0,   -3.1,   -2.9,   -3.5,   -4.1,  999.0,   -3.1,  999.0,  999.0,  999.0,  999.0,  999.0,  999.0,  999.0,  999.0,  999.0,  999.0,  999.0,  999.0,  999.0,  999.0,  999.0,  999.0,  999.0,  999.0,  999.0,  999.0,  999.0,  999.0,  999.0,  999.0,  999.0,  999.0,  999.0,  999.0,  999.0,  999.0,  999.0,  999.0,  999.0,  999.0,  999.0,  999.0,  999.0,  999.0,  999.0,  999.0,  999.0,  999.0,  999.0,  999.0,  999.0,  999.0,  999.0,  999.0,  999.0,  999.0,  999.0,  999.0,  999.0,  999.0
2011/01/10 03:10,  999.0,  999.0,  999.0,  999.0,  999.0,  999.0,  999.0,   -0.7,    0.8,    1.6,    1.9,    1.7,    1.7,  999.0,  999.0,    0.2,   -0.1,   -1.5,   -1.2,   -1.4,   -1.3,   -1.4,   -3.6,   -2.7,   -3.2,   -4.1,   -2.8,   -2.9,   -3.1,   -3.1,   -2.5,   -1.0,   -2.2,   -0.9,   -2.1,   -2.9,   -2.9,  999.0,  999.0,  999.0,   -3.6,   -3.7,   -3.7,  999.0,  999.0,  999.0,  999.0,  999.0,  999.0,  999.0,  999.0,  999.0,  999.0,  999.0,  999.0,  999.0,   -0.2,  999.0,  999.0,  999.0,  999.0,  999.0,  999.0,  999.0,  999.0,  999.0,  999.0,  999.0,  999.0,  999.0,  999.0,  999.0,  999.0,  999.0,  999.0,  999.0,  999.0,  999.0,  999.0,  999.0,  999.0,  999.0,  999.0,  999.0,  999.0,  999.0,  999.0,  999.0,  999.0,  999.0,  999.0,  999.0,  999.0,  999.0,  999.0,  999.0,  999.0,  999.0
2011/01/10 03:20,  999.0,  999.0,  999.0,  999.0,  999.0,  999.0,  999.0,  999.0,    0.5,    1.8,    1.9,    2.4,    1.5,  999.0,  999.0,   -2.5,  999.0,  999.0,  999.0,  999.0,  999.0,   -3.7,   -3.9,   -3.7,   -4.2,   -3.2,   -2.7,   -2.9,   -2.2,   -2.1,   -1.4,   -1.2,   -1.1,   -0.9,   -2.2,  999.0,   -2.5,   -3.7,   -3.9,   -4.3,   -4.6,   -5.0,   -5.8,  999.0,  999.0,  999.0,  999.0,    0.1,  999.0,    1.9,    1.3,    0.9,    0.9,    0.4,    0.4,  999.0,  999.0,    0.7,  999.0,  999.0,  999.0,  999.0,  999.0,  999.0,  999.0,  999.0,  999.0,  999.0,  999.0,  999.0,  999.0,  999.0,  999.0,  999.0,  999.0,  999.0,  999.0,  999.0,  999.0,  999.0,  999.0,  999.0,  999.0,  999.0,  999.0,  999.0,  999.0,  999.0,  999.0,  999.0,  999.0,  999.0,  999.0,  999.0,  999.0,  999.0,  999.0,  999.0
2011/01/10 03:30,   -0.8,   -2.0,   -2.2,   -0.5,  999.0,  999.0,  999.0,    0.8,    0.6,    2.1,    2.6,    2.6,    2.1,    1.3,    1.2,    0.6,   -0.3,   -0.6,   -0.8,   -1.2,   -1.2,   -1.5,   -1.6,   -1.6,   -2.1,   -2.4,   -2.6,   -2.5,   -2.0,   -2.0,   -1.6,   -0.7,   -0.5,   -1.0,   -2.0,   -3.0,   -2.4,   -3.0,   -2.8,   -4.1,   -2.4,   -2.2,   -2.1,   -2.2,  999.0,  999.0,  999.0,  999.0,  999.0,  999.0,  999.0,  999.0,  999.0,  999.0,  999.0,  999.0,  999.0,  999.0,  999.0,  999.0,  999.0,  999.0,  999.0,  999.0,  999.0,  999.0,  999.0,  999.0,  999.0,  999.0,  999.0,  999.0,  999.0,  999.0,  999.0,  999.0,  999.0,  999.0,  999.0,  999.0,  999.0,  999.0,  999.0,  999.0,  999.0,  999.0,  999.0,  999.0,  999.0,  999.0,  999.0,  999.0,  999.0,  999.0,  999.0,  999.0,  999.0,  999.0
2011/01/10 03:40,   -3.8,   -1.5,   -0.8,  999.0,  999.0,  999.0,   -6.9,   -3.4,   -1.8,   -0.1,  999.0,  999.0,   -1.0,   -1.3,  999.0,  999.0,   -3.5,   -3.9,  999.0,  999.0,  999.0,  999.0,   -0.8,   -1.6,   -2.4,   -2.7,   -2.6,   -2.4,   -2.9,   -1.3,   -1.2,   -2.2,   -2.3,  999.0,   -2.7,   -3.2,   -2.2,   -2.8,   -2.9,   -3.5,   -3.7,   -3.7,   -3.6,   -4.1,   -4.3,   -4.9,   -4.7,   -4.7,   -4.6,   -3.8,   -3.6,   -3.0,   -3.2,   -2.5,   -2.4,   -2.5,   -2.5,  999.0,  999.0,  999.0,  999.0,  999.0,  999.0,  999.0,  999.0,  999.0,  999.0,  999.0,  999.0,  999.0,  999.0,  999.0,  999.0,  999.0,  999.0,  999.0,  999.0,  999.0,  999.0,  999.0,  999.0,  999.0,  999.0,  999.0,  999.0,  999.0,  999.0,  999.0,  999.0,  999.0,  999.0,  999.0,  999.0,  999.0,  999.0,  999.0,  999.0,  999.0
2011/01/10 03:50,   -0.4,  999.0,  999.0,  999.0,  999.0,  999.0,  999.0,    0.5,    1.5,    2.4,   -0.1,    0.6,    2.6,    1.7,    2.3,   -0.1,   -0.7,    0.2,   -0.1,   -0.3,   -0.9,   -0.5,   -0.4,   -1.2,   -1.6,   -2.6,   -1.8,   -1.5,   -1.2,   -0.9,   -1.0,   -1.6,   -2.6,   -2.3,   -4.2,   -4.6,   -4.8,   -4.6,   -5.0,   -5.3,   -5.1,   -5.1,   -4.5,   -5.2,   -4.6,   -4.5,   -4.5,   -5.0,   -4.7,  999.0,   -3.6,   -3.5,   -4.4,   -4.9,   -4.7,   -4.5,   -3.8,  999.0,  999.0,  999.0,  999.0,  999.0,  999.0,  999.0,  999.0,  999.0,  999.0,  999.0,  999.0,  999.0,  999.0,  999.0,  999.0,  999.0,  999.0,  999.0,  999.0,  999.0,  999.0,  999.0,  999.0,  999.0,  999.0,  999.0,  999.0,  999.0,  999.0,  999.0,  999.0,  999.0,  999.0,  999.0,  999.0,  999.0,  999.0,  999.0,  999.0,  999.0
2011/01/10 04:00,   -2.3,   -4.0,   -0.9,   -3.5,    0.3,   -0.2,   -1.8,    6.5,    3.7,    5.4,    5.1,    5.8,    6.8,    7.7,    7.5,    4.5,    0.0,    4.4,    4.3,    1.8,    1.5,    1.5,    1.6,    1.3,    2.2,    0.2,   -2.8,    0.2,   -1.2,   -1.9,   -1.3,   -2.3,   -2.1,   -2.9,   -3.5,   -3.3,   -6.0,   -1.5,   -0.1,    8.1,   -2.0,   -2.4,    0.2,   -1.1,    1.2,   -1.7,    2.4,    1.1,  999.0,  999.0,  999.0,    3.0,    4.6,    0.9,    1.0,    3.6,    5.0,    5.9,    1.8,   -3.3,   -0.8,    1.1,    6.0,    1.2,  999.0,   -0.4,    0.6,   -3.3,  999.0,  999.0,  999.0,   -0.8,  999.0,   -1.5,   -1.8,  999.0,  999.0,  999.0,  999.0,  999.0,  999.0,  999.0,  999.0,  999.0,  999.0,  999.0,    1.0,  999.0,  999.0,  999.0,  999.0,  999.0,  999.0,  999.0,  999.0,  999.0,  999.0,  999.0
2011/01/10 04:10,   -4.3,  999.0,  999.0,    2.6,   -1.8,   -1.9,   -1.4,   -0.6,    0.1,  999.0,    0.5,    2.5,    2.5,    1.6,    1.8,    0.5,    1.6,    1.1,    1.0,    0.9,   -0.0,    0.2,    0.5,    1.1,    1.3,    1.5,    1.8,   -1.6,    0.7,   -4.5,   -4.0,   -1.0,   -0.7,   -2.6,   -0.3,    0.8,    1.8,   12.6,    1.4,    7.3,    9.8,    9.7,    8.8,   11.3,  999.0,  999.0,    1.3,    1.7,   -1.4,    3.6,    0.1,    0.3,   -0.3,   -0.2,    2.6,    2.0,  999.0,  999.0,  999.0,  999.0,  999.0,  999.0,    6.2,    0.9,  999.0,   -0.4,    6.1,   -1.0,  999.0,  999.0,  999.0,  999.0,  999.0,  999.0,  999.0,  999.0,  999.0,  999.0,  999.0,  999.0,  999.0,  999.0,  999.0,  999.0,  999.0,  999.0,  999.0,  999.0,  999.0,  999.0,  999.0,  999.0,  999.0,  999.0,  999.0,  999.0,  999.0,  999.0
2011/01/10 04:20,   -2.2,   -1.9,   -1.9,   -1.3,   -0.5,    0.4,    0.7,    0.9,    0.9,    1.2,    2.1,    2.1,    2.7,    2.7,    2.3,    1.7,    1.4,    0.5,   -0.3,   -0.6,   -1.3,   -2.1,   -2.6,   -3.3,   -3.5,   -4.2,   -3.9,   -2.7,   -2.9,   -2.4,   -1.1,    1.1,    0.7,    1.4,    2.8,    4.8,    4.3,    5.6,    6.5,    4.1,    2.3,    2.9,    2.9,    1.7,    2.1,   -1.3,   -1.8,    0.6,   -1.1,   -1.2,   -1.4,   -1.8,   -0.7,  999.0,    2.8,   -1.8,    2.2,  999.0,    1.6,  999.0,  999.0,   -0.5,  999.0,  999.0,  999.0,  999.0,  999.0,  999.0,  999.0,  999.0,  999.0,  999.0,  999.0,  999.0,  999.0,  999.0,  999.0,  999.0,  999.0,  999.0,  999.0,  999.0,  999.0,  999.0,  999.0,  999.0,  999.0,  999.0,  999.0,  999.0,  999.0,  999.0,  999.0,  999.0,  999.0,  999.0,  999.0,  999.0
2011/01/10 04:30,   -2.1,   -2.0,   -2.6,   -3.2,   -2.3,   -2.4,   -2.6,   -1.9,   -0.7,   -0.9,    0.1,    1.0,    1.2,    1.7,    1.4,    0.2,   -1.0,    0.3,   -0.4,   -1.1,   -1.0,   -0.7,   -0.3,   -1.5,   -1.5,   -1.9,   -1.1,   -2.1,   -3.6,   -2.0,   -3.3,   -2.6,   -2.5,   -2.2,   -1.6,   -0.0,   -0.1,    1.4,   -2.1,   -2.6,   -5.9,   -1.5,  999.0,   -2.2,   -2.2,   -1.9,   -1.9,    0.2,  999.0,    2.7,  999.0,  999.0,   -1.2,  999.0,  999.0,  999.0,  999.0,    3.4,  999.0,    0.6,  999.0,    1.5,    0.1,    0.6,  999.0,  999.0,  999.0,  999.0,  999.0,  999.0,  999.0,  999.0,  999.0,  999.0,  999.0,  999.0,  999.0,  999.0,  999.0,  999.0,  999.0,  999.0,  999.0,  999.0,  999.0,  999.0,  999.0,    0.1,   -0.5,  999.0,    1.0,    2.4,    3.0,    4.0,    4.1,    4.8,    5.7,  999.0
2011/01/10 04:40,   -1.8,   -2.8,   -3.2,   -3.9,   -3.2,   -2.6,   -3.1,   -2.4,   -2.4,   -2.1,   -1.8,   -1.9,   -1.5,   -0.6,    0.4,    0.4,   -1.0,   -0.9,    0.4,    2.1,    3.0,    2.9,   -0.2,   -0.0,   -1.5,   -1.5,   -1.4,   -1.1,   -0.8,   -0.8,   -1.3,   -1.6,   -2.1,   -2.0,   -1.8,   -1.8,   -1.0,   -0.2,   -0.6,   -1.1,   -2.3,   -1.3,   -0.1,   -1.7,    0.2,   -0.1,   -0.4,  999.0,  999.0,  999.0,  999.0,  999.0,  999.0,  999.0,  999.0,  999.0,  999.0,  999.0,  999.0,   -3.5,  999.0,   -3.1,  999.0,    0.6,  999.0,  999.0,  999.0,  999.0,  999.0,  999.0,  999.0,  999.0,  999.0,  999.0,  999.0,  999.0,  999.0,  999.0,  999.0,  999.0,  999.0,  999.0,  999.0,  999.0,  999.0,  999.0,  999.0,  999.0,  999.0,  999.0,    2.7,  999.0,  999.0,    4.1,    4.6,    4.6,    5.2,    6.9
2011/01/10 04:50,   -1.2,   -1.4,   -1.3,   -1.6,   -1.3,   -0.5,   -1.1,   -0.9,   -0.7,   -0.1,    0.7,    1.5,    2.0,    2.2,    2.3,    2.4,    2.2,    2.4,    1.8,    2.5,    3.5,    2.7,    3.7,    3.3,    3.4,    2.9,    3.6,    2.6,    2.8,    2.2,    1.8,    6.5,    5.4,  999.0,  999.0,    1.8,   -3.2,   -0.7,   -0.6,   -2.3,   -5.4,   -2.6,   -2.4,  999.0,   -4.4,   -2.9,   -3.5,   -1.6,   -5.4,   -2.1,   -3.8,  999.0,   -5.2,  999.0,  999.0,  999.0,  999.0,  999.0,   -5.4,  999.0,  999.0,  999.0,   -5.3,  999.0,  999.0,  999.0,  999.0,  999.0,  999.0,  999.0,  999.0,  999.0,  999.0,  999.0,  999.0,  999.0,   -0.3,  999.0,  999.0,  999.0,  999.0,  999.0,  999.0,  999.0,  999.0,  999.0,   -0.7,   -2.9,   -2.1,   -2.6,   -2.1,   -2.4,   -2.3,   -2.7,   -0.9,   -1.6,    0.2,   -0.6
2011/01/10 05:00,  999.0,   -1.9,  999.0,   -2.4,   -3.2,   -2.4,   -1.6,    0.1,    1.1,    1.2,    1.5,    1.2,    2.0,    0.6,  999.0,   -1.3,   -1.5,   -1.9,   -0.7,   -1.1,   -0.3,   -0.3,   -2.7,   -5.0,   -3.2,   -3.7,   -5.4,  999.0,   -1.3,  999.0,   -0.5,  999.0,  999.0,  999.0,  999.0,  999.0,  999.0,  999.0,   -2.3,   -1.6,   -1.0,  999.0,  999.0,  999.0,  999.0,  999.0,  999.0,  999.0,  999.0,  999.0,  999.0,  999.0,  999.0,  999.0,  999.0,  999.0,  999.0,  999.0,  999.0,  999.0,  999.0,  999.0,  999.0,  999.0,  999.0,  999.0,  999.0,  999.0,  999.0,  999.0,  999.0,  999.0,  999.0,  999.0,  999.0,  999.0,  999.0,  999.0,  999.0,  999.0,  999.0,  999.0,  999.0,  999.0,  999.0,  999.0,   -4.5,   -3.6,   -3.8,   -4.3,   -3.4,   -2.5,   -1.8,   -1.3,   -1.2,   -1.6,   -1.6,   -1.9
2011/01/10 05:10,   -2.1,   -1.7,   -2.5,   -4.0,   -3.1,   -2.0,   -1.8,   -1.2,   -0.7,   -0.6,    0.6,   -0.4,   -0.6,    0.2,    0.3,    0.0,    0.6,   -0.1,   -0.5,   -0.5,   -0.2,   -0.3,    0.8,   -0.0,  999.0,    0.1,   -0.2,   -0.4,   -0.1,   -0.1,   -0.0,    0.1,   -0.1,    2.9,    0.7,    4.8,   -0.8,    0.5,    2.7,  999.0,  999.0,  999.0,  999.0,  999.0,  999.0,  999.0,  999.0,  999.0,  999.0,  999.0,  999.0,  999.0,  999.0,  999.0,  999.0,  999.0,  999.0,  999.0,  999.0,  999.0,    1.1,    2.0,    2.3,    5.5,    6.5,  999.0,  999.0,  999.0,  999.0,  999.0,  999.0,  999.0,  999.0,  999.0,  999.0,  999.0,   -1.9,  999.0,  999.0,  999.0,  999.0,  999.0,  999.0,  999.0,   -3.8,   -3.9,   -3.5,   -2.9,   -2.3,   -2.3,   -2.3,   -2.1,   -1.3,   -0.0,    0.8,    1.6,    1.7,    1.8
2011/01/10 05:20,  999.0,   -2.2,   -2.6,   -3.0,   -3.5,  999.0,   -1.2,  999.0,   -0.5,   -0.3,  999.0,  999.0,    0.7,    0.2,    0.9,    0.3,  999.0,    0.3,    0.6,    2.2,    1.7,    0.8,    1.4,    1.4,    0.5,    1.0,    1.1,    0.9,    1.4,    2.1,    2.8,    2.7,    5.9,  999.0,  999.0,  999.0,  999.0,  999.0,    3.3,  999.0,    1.7,  999.0,    3.5,  999.0,  999.0,    3.3,  999.0,  999.0,  999.0,  999.0,  999.0,  999.0,  999.0,  999.0,  999.0,  999.0,  999.0,  999.0,  999.0,   -1.4,   -1.7,   -2.4,  999.0,  999.0,  999.0,   -2.4,   -1.2,  999.0,   -0.4,  999.0,   -3.6,   -3.5,   -6.3,   -7.1,   -7.2,   -6.7,   -7.6,   -7.3,   -6.2,   -6.0,   -7.4,  999.0,  999.0,  999.0,  999.0,   -4.6,   -5.3,   -3.7,   -2.5,   -2.4,   -1.2,   -1.3,    1.2,    2.1,    2.6,    2.9,    3.4,    3.7
2011/01/10 05:30,  999.0,  999.0,  999.0,  999.0,  999.0,  999.0,  999.0,  999.0,   -2.2,  999.0,   -2.7,    0.0,    0.2,    0.1,    0.3,   -3.5,   -3.8,   -3.3,  999.0,  999.0,   -2.8,   -2.6,   -0.7,   -0.7,    2.7,    1.9,    3.6,    5.6,    3.8,    5.2,    7.4,    7.3,    8.0,    6.7,  999.0,    6.6,  999.0,  999.0,  999.0,  999.0,    5.1,    5.2,    6.6,    6.8,    8.5,    5.2,  999.0,  999.0,    7.0,  999.0,    5.8,    5.0,  999.0,    4.1,    4.1,    3.5,  999.0,    3.1,    2.8,    2.4,    2.0,    2.5,    2.6,    3.3,  999.0,  999.0,    3.7,    3.7,    4.3,  999.0,  999.0,  999.0,  999.0,  999.0,  999.0,  999.0,  999.0,   -6.2,   -5.1,   -3.2,   -3.3,   -3.4,   -3.4,   -2.9,   -1.9,   -1.7,   -1.5,   -0.0,    1.4,    1.7,    1.7,    3.4,    3.5,    3.5,    3.2,    3.5,    3.6,    3.3
2011/01/10 05:40,  999.0,  999.0,   -2.5,  999.0,   -1.5,   -1.8,   -1.8,   -0.9,   -0.3,    1.6,    1.9,   -0.7,   -0.6,    0.1,    1.0,    0.2,   -1.1,    0.3,    0.1,   -0.5,   -0.2,   -0.5,   -0.5,   -0.9,   -0.8,   -1.0,    0.3,   -0.2,    0.8,    1.6,    2.2,    1.7,    2.2,    2.0,    2.8,    4.8,    7.0,    7.5,    8.1,    8.7,    9.2,    8.7,    9.0,    7.6,  999.0,  999.0,  999.0,    5.9,    6.3,    5.0,    2.9,    1.5,   -2.2,   -3.0,   -3.0,   -2.1,  999.0,    1.0,    0.1,   -0.1,   -1.6,   -2.6,   -1.5,   -2.2,   -1.7,   -0.0,    0.7,    0.2,    0.0,  999.0,  999.0,  999.0,  999.0,  999.0,  999.0,  999.0,  999.0,  999.0,   -1.7,   -1.9,   -2.3,   -2.8,   -3.0,   -3.5,   -2.7,  999.0,   -2.4,   -1.9,  999.0,  999.0,  999.0,  999.0,  999.0,  999.0,  999.0,    2.8,    2.8,  999.0
2011/01/10 05:50,  999.0,   -1.8,   -1.9,   -1.7,   -1.0,   -1.1,   -1.2,   -0.5,    0.1,   -0.1,    0.4,    0.4,    0.3,    0.0,   -0.3,   -0.3,   -0.3,   -0.9,   -1.3,   -1.3,   -1.5,   -1.2,   -0.4,   -0.6,   -0.4,   -0.7,   -0.1,   -0.8,    1.2,    0.7,    1.1,    0.7,    0.5,    2.4,    2.3,    4.9,    4.2,    3.8,    5.6,    4.8,    5.0,    5.3,    6.5,    3.8,    3.4,    2.3,    0.5,    0.5,   -1.1,   -1.3,   -2.5,   -3.1,   -3.5,   -4.0,   -5.1,   -4.9,   -5.6,   -5.7,  999.0,  999.0,   -5.6,   -5.3,   -5.4,   -5.6,   -3.5,   -2.2,   -2.1,  999.0,  999.0,  999.0,  999.0,  999.0,  999.0,  999.0,  999.0,  999.0,  999.0,  999.0,  999.0,  999.0,  999.0,  999.0,  999.0,  999.0,  999.0,  999.0,  999.0,  999.0,  999.0,  999.0,  999.0,  999.0,  999.0,  999.0,  999.0,  999.0,  999.0,  999.0
2011/01/10 06:00,  999.0,  999.0,  999.0,  999.0,  999.0,  999.0,  999.0,   -1.5,    0.4,  999.0,   -0.8,   -1.5,   -0.6,   -1.6,   -0.8,   -1.0,   -1.3,   -2.1,   -1.8,   -1.5,   -1.2,   -1.0,   -1.1,   -1.3,   -1.2,   -0.8,    0.1,   -0.3,   -0.9,   -0.3,    0.7,    1.6,    1.9,    2.4,    2.3,    2.6,    2.7,    2.0,    1.8,    1.7,    1.7,    1.5,  999.0,    0.7,    1.1,   -0.1,   -0.4,   -0.3,   -0.4,   -1.1,   -1.8,   -2.3,   -2.6,  999.0,   -3.7,   -4.1,  999.0,  999.0,  999.0,  999.0,  999.0,  999.0,  999.0,  999.0,  999.0,  999.0,  999.0,  999.0,  999.0,  999.0,  999.0,  999.0,  999.0,  999.0,  999.0,  999.0,  999.0,  999.0,  999.0,  999.0,  999.0,  999.0,  999.0,  999.0,  999.0,  999.0,  999.0,  999.0,  999.0,  999.0,  999.0,  999.0,  999.0,  999.0,  999.0,  999.0,  999.0,  999.0
2011/01/10 06:10,  999.0,  999.0,  999.0,  999.0,  999.0,  999.0,   -1.6,   -0.6,   -0.4,   -0.2,   -0.1,    0.1,  999.0,   -0.6,   -0.2,   -0.8,   -0.5,   -0.7,   -0.8,   -0.7,   -0.5,   -0.6,   -0.5,   -0.5,   -0.5,   -0.5,   -0.4,   -0.3,   -0.9,    0.1,    0.7,    2.5,    3.4,    3.8,    3.3,    3.9,    4.2,    4.1,    3.8,  999.0,    1.3,    0.8,    0.8,    0.6,   -0.8,   -1.7,   -1.2,   -0.8,   -1.0,   -1.0,   -1.7,  999.0,  999.0,  999.0,  999.0,  999.0,  999.0,  999.0,  999.0,  999.0,  999.0,  999.0,  999.0,  999.0,  999.0,  999.0,  999.0,  999.0,  999.0,  999.0,  999.0,  999.0,  999.0,  999.0,  999.0,  999.0,  999.0,  999.0,  999.0,  999.0,  999.0,  999.0,  999.0,  999.0,  999.0,  999.0,  999.0,  999.0,  999.0,  999.0,  999.0,  999.0,  999.0,  999.0,  999.0,  999.0,  999.0,  999.0
2011/01/10 06:20,  999.0,  999.0,  999.0,  999.0,  999.0,   -2.2,   -2.0,  999.0,   -1.4,    0.1,    0.3,   -0.4,   -1.0,   -0.8,   -0.3,    0.8,    0.9,    0.5,    0.2,    0.0,   -0.4,   -0.0,    0.6,    0.6,    0.6,    0.6,    0.5,    0.2,   -0.0,   -0.3,    0.1,    1.1,    2.1,    2.1,    1.4,    2.1,    3.1,    4.0,    3.7,    3.0,    1.6,   -0.2,   -0.7,   -1.4,   -2.2,   -2.5,   -2.9,   -2.4,   -2.1,   -1.9,   -2.2,   -2.5,  999.0,  999.0,  999.0,  999.0,   -5.0,   -5.7,  999.0,  999.0,  999.0,  999.0,  999.0,  999.0,  999.0,  999.0,  999.0,  999.0,  999.0,  999.0,  999.0,  999.0,  999.0,  999.0,  999.0,  999.0,  999.0,  999.0,  999.0,  999.0,  999.0,  999.0,  999.0,  999.0,  999.0,  999.0,  999.0,  999.0,  999.0,  999.0,  999.0,  999.0,  999.0,  999.0,  999.0,  999.0,  999.0,  999.0
2011/01/10 06:30,  999.0,  999.0,  999.0,  999.0,  999.0,  999.0,  999.0,   -1.8,   -1.5,   -0.9,   -0.3,   -0.5,   -1.2,   -1.2,   -0.5,    0.1,    0.8,    1.1,    0.9,    0.4,   -0.3,   -0.7,   -0.6,   -0.4,   -0.3,   -0.2,   -0.8,   -0.6,   -0.1,   -0.3,   -0.1,    0.3,    1.6,    2.2,    2.0,    0.9,    0.8,    1.8,    2.2,    2.2,    1.5,    0.9,   -0.2,   -0.8,   -1.3,   -1.5,   -2.1,   -1.6,   -1.7,   -1.5,   -1.9,  999.0,  999.0,  999.0,  999.0,  999.0,   -4.5,  999.0,  999.0,  999.0,  999.0,  999.0,  999.0,  999.0,  999.0,  999.0,  999.0,  999.0,  999.0,  999.0,  999.0,  999.0,  999.0,  999.0,  999.0,  999.0,  999.0,  999.0,  999.0,  999.0,  999.0,  999.0,  999.0,  999.0,  999.0,  999.0,  999.0,  999.0,  999.0,  999.0,  999.0,  999.0,  999.0,  999.0,  999.0,  999.0,  999.0,  999.0
2011/01/10 06:40,   -0.0,  999.0,  999.0,   -2.2,  999.0,   -2.3,   -1.7,   -1.5,   -1.1,   -0.4,   -0.1,    0.0,   -0.5,   -0.5,   -0.2,    0.1,    0.8,    0.8,    0.3,   -0.4,   -1.2,   -1.2,   -1.1,   -0.7,   -0.3,   -0.9,   -0.1,    0.3,   -0.1,    0.2,    0.3,   -0.6,   -0.5,    0.8,  999.0,   -0.2,   -1.5,   -1.3,   -0.8,   -0.8,   -0.8,   -0.8,   -0.9,   -1.1,   -1.3,   -1.9,   -2.2,   -2.4,  999.0,  999.0,  999.0,  999.0,   -3.0,  999.0,  999.0,  999.0,  999.0,  999.0,   -4.7,   -4.6,  999.0,  999.0,  999.0,  999.0,  999.0,  999.0,  999.0,  999.0,  999.0,  999.0,  999.0,  999.0,  999.0,  999.0,  999.0,  999.0,  999.0,  999.0,  999.0,  999.0,  999.0,  999.0,  999.0,  999.0,  999.0,  999.0,  999.0,  999.0,  999.0,  999.0,  999.0,  999.0,  999.0,  999.0,  999.0,  999.0,  999.0,  999.0
2011/01/10 06:50,  999.0,  999.0,  999.0,  999.0,   -2.3,   -2.3,   -2.2,   -2.1,   -1.5,   -0.9,   -0.7,   -0.5,   -0.9,   -0.8,   -0.1,    0.6,    0.8,    0.7,    0.5,   -0.4,   -1.4,   -1.2,   -1.0,   -0.9,   -1.5,   -1.4,   -0.7,   -0.3,   -0.5,   -1.5,   -0.4,   -0.5,   -0.3,    0.7,   -0.2,   -0.8,   -1.4,   -1.8,   -1.9,   -1.4,   -1.2,  999.0,   -1.0,   -0.9,   -1.2,   -1.8,  999.0,  999.0,  999.0,  999.0,  999.0,   -3.4,   -3.8,  999.0,  999.0,  999.0,   -5.4,  999.0,   -4.7,  999.0,  999.0,  999.0,  999.0,  999.0,  999.0,  999.0,  999.0,  999.0,  999.0,  999.0,  999.0,  999.0,  999.0,  999.0,  999.0,  999.0,  999.0,  999.0,  999.0,  999.0,  999.0,  999.0,  999.0,  999.0,  999.0,  999.0,  999.0,  999.0,  999.0,  999.0,  999.0,  999.0,  999.0,  999.0,  999.0,  999.0,  999.0,  999.0
2011/01/10 07:00,   -0.0,   -0.3,   -1.8,   -2.1,   -1.9,   -2.1,   -2.2,   -2.2,   -1.7,   -1.6,   -1.2,   -0.8,   -0.8,   -0.8,    0.8,    1.6,    1.2,    0.6,    0.3,   -0.2,   -1.5,   -1.4,   -1.5,   -0.7,  999.0,  999.0,  999.0,   -1.3,   -1.7,   -1.6,   -1.3,   -0.6,    0.1,    0.3,   -0.1,   -0.9,   -1.0,   -0.7,   -1.0,   -0.8,   -1.0,   -1.0,   -1.0,   -1.2,   -1.3,  999.0,  999.0,  999.0,  999.0,  999.0,  999.0,  999.0,  999.0,  999.0,  999.0,  999.0,  999.0,  999.0,   -4.7,   -5.5,  999.0,  999.0,  999.0,  999.0,  999.0,  999.0,  999.0,  999.0,  999.0,  999.0,  999.0,  999.0,  999.0,  999.0,  999.0,  999.0,  999.0,  999.0,  999.0,  999.0,  999.0,  999.0,  999.0,  999.0,  999.0,  999.0,  999.0,  999.0,  999.0,  999.0,  999.0,  999.0,  999.0,  999.0,  999.0,  999.0,  999.0,  999.0
2011/01/10 07:10,   -0.2,   -0.5,   -2.1,   -1.9,   -2.2,   -2.2,   -2.4,   -2.2,   -1.7,   -1.6,   -1.2,   -1.7,  999.0,   -1.6,   -0.6,    0.9,    0.7,    0.5,   -0.1,   -0.4,   -1.0,   -1.0,   -0.5,    0.1,    0.3,   -0.5,    0.4,   -1.3,   -2.5,   -1.2,   -0.6,   -0.4,   -0.3,   -0.0,   -0.5,   -0.3,   -0.2,   -0.2,   -0.4,   -0.8,   -1.3,   -1.4,   -0.8,  999.0,   -1.4,   -2.0,  999.0,  999.0,   -5.4,   -4.5,  999.0,   -2.6,   -3.7,   -4.7,   -4.3,   -4.5,   -4.2,   -4.1,   -3.7,   -3.4,   -2.7,  999.0,  999.0,  999.0,  999.0,  999.0,  999.0,  999.0,  999.0,  999.0,  999.0,  999.0,  999.0,  999.0,  999.0,  999.0,  999.0,  999.0,  999.0,  999.0,  999.0,  999.0,  999.0,  999.0,  999.0,  999.0,  999.0,  999.0,  999.0,  999.0,  999.0,  999.0,  999.0,  999.0,  999.0,  999.0,  999.0,  999.0
2011/01/10 07:20,   -0.2,   -1.2,   -1.8,   -1.9,   -2.0,   -2.1,   -1.5,   -1.5,   -1.2,   -1.0,   -0.8,   -1.0,   -0.5,    0.0,    1.0,    1.6,    1.2,  999.0,   -0.5,   -1.0,   -0.9,  999.0,   -1.1,   -0.9,   -0.8,   -0.1,   -0.3,   -0.7,   -1.1,   -1.1,    0.0,    1.0,    0.9,    0.5,   -0.2,   -0.0,   -0.2,   -0.3,  999.0,   -0.4,   -2.0,   -2.3,   -3.1,   -4.3,   -4.8,   -5.4,   -4.6,   -5.1,   -4.8,   -4.5,   -3.8,   -3.1,   -2.8,   -3.0,   -4.3,  999.0,   -3.2,   -2.6,  999.0,  999.0,  999.0,  999.0,  999.0,  999.0,  999.0,  999.0,  999.0,  999.0,  999.0,  999.0,  999.0,  999.0,  999.0,  999.0,  999.0,  999.0,  999.0,  999.0,  999.0,  999.0,  999.0,  999.0,  999.0,  999.0,  999.0,  999.0,  999.0,  999.0,  999.0,  999.0,  999.0,  999.0,  999.0,  999.0,  999.0,  999.0,  999.0,  999.0
2011/01/10 07:30,   -0.7,   -1.8,   -3.3,   -3.1,   -2.9,   -1.9,   -1.8,   -1.8,   -1.5,   -0.7,   -0.6,   -0.3,    0.4,    0.9,    2.0,    1.9,    1.7,    1.2,    0.1,   -0.6,   -0.9,  999.0,   -1.4,   -0.9,  999.0,  999.0,  999.0,   -3.5,   -3.8,   -2.4,   -2.1,   -1.2,   -0.3,  999.0,  999.0,    0.9,   -0.7,   -0.9,   -1.5,   -2.9,   -3.6,   -4.0,   -3.2,   -3.4,   -3.2,   -3.0,   -4.1,   -4.2,   -3.6,   -3.3,   -3.3,   -3.4,   -3.1,  999.0,  999.0,  999.0,  999.0,  999.0,  999.0,  999.0,  999.0,   -3.9,  999.0,  999.0,  999.0,  999.0,  999.0,  999.0,  999.0,  999.0,  999.0,  999.0,  999.0,  999.0,  999.0,  999.0,  999.0,  999.0,  999.0,  999.0,  999.0,  999.0,  999.0,  999.0,  999.0,  999.0,  999.0,  999.0,  999.0,  999.0,  999.0,  999.0,  999.0,  999.0,  999.0,  999.0,  999.0,  999.0
2011/01/10 07:40,   -0.8,   -3.0,   -3.4,   -2.2,   -1.2,   -0.8,   -0.8,   -0.7,   -0.2,    0.0,    0.5,    1.3,    2.3,    2.3,    1.9,    1.2,    0.7,    0.3,   -0.2,   -0.3,   -0.2,   -0.3,    0.2,    0.8,    0.6,    0.3,  999.0,    0.2,   -0.6,    0.4,    1.0,    1.6,    1.3,    1.4,    1.0,    0.6,   -0.4,   -0.9,   -1.0,   -0.9,   -0.6,   -0.6,   -0.5,   -0.8,  999.0,   -1.7,   -1.6,   -1.6,   -2.4,   -2.3,   -2.1,   -2.0,  999.0,  999.0,  999.0,  999.0,  999.0,  999.0,  999.0,  999.0,  999.0,   -4.1,   -4.3,  999.0,  999.0,  999.0,  999.0,  999.0,  999.0,  999.0,  999.0,  999.0,  999.0,  999.0,  999.0,  999.0,  999.0,  999.0,  999.0,  999.0,  999.0,  999.0,  999.0,  999.0,  999.0,  999.0,  999.0,  999.0,  999.0,  999.0,  999.0,  999.0,  999.0,  999.0,  999.0,  999.0,  999.0,  999.0
2011/01/10 07:50,   -0.6,   -1.1,   -1.6,   -1.1,   -0.6,   -0.6,   -0.9,   -0.5,   -0.3,    0.1,    0.8,    1.3,    1.7,    1.4,    1.7,    2.2,    2.0,    2.0,    1.1,    0.4,    0.0,    0.1,    0.5,    1.4,    1.5,    0.6,    0.1,   -0.4,   -0.9,   -0.2,    0.3,    1.1,    1.0,    0.8,   -0.1,   -0.6,   -0.9,   -1.0,   -0.3,    0.1,   -0.2,   -0.5,   -0.5,  999.0,  999.0,   -1.3,   -1.3,   -1.8,   -1.8,   -1.2,   -1.0,   -1.8,   -1.4,  999.0,  999.0,  999.0,  999.0,  999.0,  999.0,  999.0,  999.0,  999.0,  999.0,  999.0,  999.0,  999.0,  999.0,  999.0,  999.0,  999.0,  999.0,  999.0,  999.0,  999.0,  999.0,  999.0,  999.0,  999.0,  999.0,  999.0,  999.0,  999.0,  999.0,  999.0,  999.0,  999.0,  999.0,  999.0,  999.0,  999.0,  999.0,  999.0,  999.0,  999.0,  999.0,  999.0,  999.0,  999.0
2011/01/10 08:00,   -0.3,   -0.8,   -1.4,   -1.5,   -2.9,   -2.2,   -2.3,   -2.0,   -1.2,   -0.4,    0.3,    0.7,    0.7,    0.6,    1.2,    1.6,    2.0,    2.1,    1.6,    0.7,    0.3,    0.3,    1.1,    1.8,    1.7,    0.7,    0.0,   -0.9,   -1.0,   -0.0,    0.7,    1.0,    1.0,    1.0,    0.2,   -0.4,   -0.7,   -1.0,   -0.4,    0.5,    0.6,   -0.3,   -0.6,   -1.7,   -1.8,   -2.0,   -1.7,   -1.9,   -1.7,   -0.8,   -1.4,  999.0,  999.0,  999.0,  999.0,  999.0,  999.0,  999.0,  999.0,  999.0,  999.0,  999.0,  999.0,  999.0,  999.0,  999.0,  999.0,  999.0,  999.0,  999.0,  999.0,  999.0,  999.0,  999.0,  999.0,  999.0,  999.0,  999.0,  999.0,  999.0,  999.0,  999.0,  999.0,  999.0,  999.0,  999.0,  999.0,  999.0,  999.0,  999.0,  999.0,  999.0,  999.0,  999.0,  999.0,  999.0,  999.0,  999.0
2011/01/10 08:10,  999.0,   -1.4,   -0.5,   -3.3,   -3.3,   -3.0,   -2.7,   -2.3,   -1.8,  999.0,   -0.0,    0.8,    0.8,    1.0,    1.3,    1.8,    2.2,    2.3,    3.0,    2.6,    1.6,    0.6,    0.7,    1.1,    0.4,    0.2,   -0.5,   -1.3,   -1.3,   -0.1,    0.5,    0.7,    1.0,    1.4,    0.4,   -0.2,   -0.0,   -0.1,   -0.6,   -0.4,   -0.2,   -0.5,   -1.1,   -1.4,   -1.5,   -1.5,  999.0,  999.0,  999.0,  999.0,  999.0,  999.0,  999.0,  999.0,  999.0,  999.0,  999.0,  999.0,  999.0,  999.0,  999.0,  999.0,  999.0,  999.0,  999.0,  999.0,  999.0,  999.0,  999.0,  999.0,  999.0,  999.0,  999.0,  999.0,  999.0,  999.0,  999.0,  999.0,  999.0,  999.0,  999.0,  999.0,  999.0,  999.0,  999.0,  999.0,  999.0,  999.0,  999.0,  999.0,  999.0,  999.0,  999.0,  999.0,  999.0,  999.0,  999.0,  999.0
2011/01/10 08:20,  999.0,   -3.1,   -2.9,   -3.9,   -4.1,   -3.7,   -3.6,   -2.6,   -1.6,  999.0,  999.0,    0.2,    0.4,    0.3,    0.4,    0.8,    1.3,    2.4,    3.2,    2.0,    0.8,    0.7,    1.2,    1.6,    0.1,   -0.6,   -1.2,   -1.2,   -0.3,    0.7,    1.2,    1.0,    0.9,    0.3,   -0.1,   -0.6,   -0.2,    0.1,   -0.3,   -0.5,   -0.8,   -1.4,   -1.2,   -0.9,   -0.8,  999.0,  999.0,  999.0,  999.0,  999.0,  999.0,  999.0,  999.0,  999.0,  999.0,  999.0,  999.0,  999.0,  999.0,  999.0,   -3.7,  999.0,  999.0,  999.0,  999.0,  999.0,  999.0,  999.0,  999.0,  999.0,  999.0,  999.0,  999.0,  999.0,  999.0,  999.0,  999.0,  999.0,  999.0,  999.0,  999.0,  999.0,  999.0,  999.0,  999.0,  999.0,  999.0,  999.0,  999.0,  999.0,  999.0,  999.0,    2.2,    2.8,    3.3,    3.8,    4.1,    4.2
2011/01/10 08:30,  999.0,   -2.0,   -1.9,   -2.2,   -3.9,  999.0,   -4.0,   -3.1,   -2.1,  999.0,  999.0,  999.0,    0.1,  999.0,    0.5,    0.7,    1.5,    2.3,    2.7,    1.6,    1.3,    1.9,    2.4,    1.2,   -0.3,   -1.6,  999.0,  999.0,   -1.2,   -0.9,   -0.0,    0.6,    0.7,    0.5,   -0.5,   -1.1,   -0.8,   -0.4,   -0.6,   -1.1,   -0.9,   -1.1,   -1.0,   -0.8,  999.0,  999.0,  999.0,  999.0,  999.0,  999.0,  999.0,  999.0,  999.0,  999.0,  999.0,  999.0,  999.0,  999.0,  999.0,  999.0,  999.0,  999.0,  999.0,  999.0,  999.0,  999.0,   -3.0,   -3.1,   -2.6,   -2.9,   -2.9,   -3.3,   -3.8,   -4.1,   -4.4,   -4.3,   -3.9,   -3.3,   -2.6,   -1.6,    0.3,    0.8,    0.9,    0.9,    1.3,    0.9,    1.3,    1.3,    1.5,    1.7,    1.9,    2.2,    2.3,    2.2,    2.3,    2.2,    2.2,    2.1
2011/01/10 08:40,   -0.5,   -0.4,   -0.2,   -0.7,   -3.4,   -0.2,   -2.8,   -1.9,   -2.0,   -0.9,   -0.5,  999.0,    0.0,    0.3,    0.3,    0.3,    1.1,    2.2,    1.9,    1.4,    1.3,    1.8,    2.1,    0.7,   -0.7,   -2.3,   -2.8,   -3.1,   -2.7,   -2.0,   -1.2,   -0.6,    0.3,    0.2,   -0.7,   -1.1,   -1.1,   -1.1,   -1.4,   -1.3,   -1.3,   -1.6,   -1.6,   -1.3,   -0.6,  999.0,  999.0,  999.0,  999.0,  999.0,  999.0,  999.0,  999.0,  999.0,  999.0,  999.0,  999.0,  999.0,  999.0,  999.0,  999.0,  999.0,  999.0,   -2.9,  999.0,  999.0,  999.0,  999.0,   -2.8,   -2.0,   -2.7,   -3.2,   -3.4,   -3.6,   -3.4,   -3.5,   -3.6,   -3.6,   -3.3,   -2.9,   -2.1,   -1.9,   -2.0,   -1.7,   -1.1,   -0.3,    0.4,    0.9,    1.3,    1.6,    1.5,    1.7,    1.5,    1.2,    1.6,    2.0,    2.2,    2.4
2011/01/10 08:50,   -0.3,   -1.1,   -0.5,   -1.3,   -2.1,  999.0,   -2.4,   -2.5,   -1.0,   -0.5,   -0.2,   -0.0,    0.3,   -0.1,   -0.2,    0.5,    1.8,    2.2,    1.8,    1.5,    1.4,    1.8,    2.0,  999.0,   -0.2,   -0.3,   -0.8,   -1.6,   -1.6,   -1.5,   -0.5,    0.3,    0.9,    0.3,   -0.3,   -0.4,   -0.6,   -1.1,   -1.3,   -0.9,   -1.0,   -1.3,   -1.3,   -0.6,   -0.5,  999.0,  999.0,  999.0,  999.0,  999.0,  999.0,  999.0,  999.0,  999.0,  999.0,  999.0,  999.0,  999.0,  999.0,  999.0,  999.0,  999.0,  999.0,   -2.5,   -3.1,  999.0,  999.0,  999.0,  999.0,  999.0,  999.0,  999.0,  999.0,  999.0,  999.0,   -3.5,   -3.7,   -3.7,   -3.7,   -3.2,   -2.7,   -2.5,   -2.2,   -1.9,   -1.6,   -1.1,   -0.5,   -0.1,    0.1,    0.1,    0.2,    0.5,    0.7,    1.6,    2.3,    3.3,    3.7,    3.9
2011/01/10 09:00,   -0.8,   -1.4,   -2.5,   -2.5,   -2.7,   -3.1,   -3.1,   -2.4,   -1.7,   -0.8,   -0.3,   -0.0,    0.4,    0.8,    0.7,    0.4,    0.5,    0.9,    1.2,    1.2,    0.8,    1.0,    1.3,    1.5,    1.3,    0.9,   -0.1,   -0.5,   -1.1,   -1.2,   -0.7,    0.6,    1.3,    0.1,  999.0,   -0.4,   -0.8,   -1.8,   -1.6,   -0.7,   -0.7,   -0.8,  999.0,   -0.2,  999.0,  999.0,  999.0,  999.0,  999.0,  999.0,  999.0,  999.0,  999.0,  999.0,  999.0,  999.0,  999.0,  999.0,  999.0,  999.0,  999.0,  999.0,  999.0,  999.0,  999.0,  999.0,  999.0,  999.0,  999.0,  999.0,  999.0,  999.0,  999.0,   -4.0,   -4.3,   -3.9,   -3.6,   -3.0,   -2.3,   -2.0,   -1.8,   -1.7,   -1.8,   -1.7,   -2.4,   -1.9,   -0.9,   -0.2,    0.6,    1.5,    2.3,    2.6,    2.8,    3.0,    3.0,    3.2,    3.3,    3.7
2011/01/10 09:10,   -0.1,   -0.4,   -2.2,   -2.6,   -2.6,  999.0,   -2.5,   -2.0,   -1.4,   -1.0,   -0.7,   -0.2,   -0.1,    0.3,    0.9,    1.3,    0.9,    0.4,    1.2,    1.3,    1.5,    1.2,    0.9,    1.0,    1.1,    1.2,    0.2,   -0.8,   -1.1,   -1.6,   -2.4,   -1.3,    0.3,    0.2,   -0.4,   -0.8,   -1.3,   -2.0,   -2.6,   -1.9,   -1.1,   -1.2,   -1.3,   -0.9,   -1.4,  999.0,  999.0,  999.0,  999.0,  999.0,  999.0,  999.0,  999.0,  999.0,   -3.0,   -3.7,   -3.6,   -4.7,   -5.5,   -5.7,   -4.9,   -6.0,   -7.3,   -9.2,   -8.6,   -8.9,   -9.1,   -7.9,   -6.9,   -4.1,  999.0,   -3.2,   -1.9,   -1.5,   -1.0,   -0.6,   -0.6,   -0.7,   -0.8,   -0.7,   -0.8,   -1.1,   -0.8,   -0.2,    0.5,    1.0,    1.7,    1.9,    2.6,    3.1,    3.1,    2.9,    3.6,    4.1,    4.4,    4.8,    5.0,    5.4
2011/01/10 09:20,    0.1,   -0.1,   -0.6,   -1.0,   -1.0,   -2.4,   -1.6,   -1.5,   -1.1,   -0.5,   -0.2,   -0.2,    0.1,    0.3,    0.4,    0.7,    1.0,    0.5,    0.4,    0.6,    0.5,    0.2,    0.2,    0.6,    0.5,    0.1,   -0.7,   -1.4,   -2.0,   -2.0,   -1.7,   -0.2,    0.3,   -0.1,   -0.6,   -1.0,   -1.5,   -2.2,   -2.4,   -2.1,   -1.7,   -1.7,   -1.7,   -1.7,  999.0,  999.0,  999.0,  999.0,  999.0,  999.0,  999.0,  999.0,  999.0,  999.0,  999.0,  999.0,  999.0,  999.0,  999.0,  999.0,  999.0,  999.0,  999.0,  999.0,  999.0,  999.0,  999.0,  999.0,  999.0,  999.0,   -1.5,   -1.8,   -1.0,   -0.8,   -0.5,   -0.9,   -0.7,   -0.7,    0.3,    0.4,    0.9,    0.8,    1.1,    1.0,    0.7,    0.7,    0.8,    0.9,    1.2,    1.5,  999.0,    2.5,    2.5,    3.3,    3.4,    3.3,  999.0,    3.4
2011/01/10 09:30,  999.0,  999.0,   -1.0,   -2.5,   -3.0,   -1.9,   -1.7,   -2.0,   -1.0,   -0.3,   -0.3,   -0.0,   -0.1,    0.1,    0.1,    0.4,    0.5,    0.0,    0.2,    0.5,    0.4,    0.2,    0.9,    0.9,    0.6,    0.4,   -0.6,   -1.3,  999.0,   -1.2,   -0.2,    0.3,   -0.3,   -1.2,   -1.2,   -0.9,   -2.4,   -3.0,   -2.2,   -2.5,   -1.9,   -1.7,  999.0,  999.0,  999.0,  999.0,  999.0,  999.0,  999.0,  999.0,  999.0,  999.0,  999.0,  999.0,  999.0,  999.0,  999.0,   -5.0,   -4.9,   -4.9,  999.0,  999.0,  999.0,  999.0,  999.0,  999.0,  999.0,  999.0,  999.0,  999.0,  999.0,  999.0,  999.0,  999.0,  999.0,  999.0,  999.0,    3.4,    2.9,    2.6,    2.5,    3.1,    3.5,    3.3,    3.1,    2.8,    2.9,    2.3,    2.2,    2.2,    2.2,    2.0,    2.8,    3.0,    3.3,  999.0,  999.0,  999.0
2011/01/10 09:40,   -0.4,   -0.3,   -1.3,   -2.1,   -1.5,  999.0,   -1.9,   -1.9,   -1.0,   -0.0,   -0.1,   -0.0,   -0.3,   -0.4,   -0.5,   -0.1,    0.3,   -0.1,    0.4,    0.8,    0.6,    0.8,    1.6,    1.3,    1.1,  999.0,   -1.2,   -1.5,   -1.0,   -0.3,    0.4,   -0.3,   -0.4,   -0.8,   -0.7,   -1.6,   -1.9,  999.0,  999.0,   -1.7,   -1.4,  999.0,  999.0,  999.0,  999.0,  999.0,  999.0,  999.0,  999.0,  999.0,  999.0,  999.0,  999.0,  999.0,  999.0,  999.0,  999.0,  999.0,  999.0,  999.0,  999.0,   -2.9,   -3.3,  999.0,  999.0,  999.0,  999.0,  999.0,  999.0,  999.0,  999.0,  999.0,  999.0,  999.0,  999.0,  999.0,    1.9,  999.0,  999.0,  999.0,  999.0,  999.0,  999.0,  999.0,  999.0,  999.0,  999.0,  999.0,  999.0,  999.0,  999.0,  999.0,  999.0,  999.0,  999.0,  999.0,  999.0,  999.0
2011/01/10 09:50,   -0.8,   -0.8,   -1.4,   -2.6,  999.0,   -1.3,   -0.1,  999.0,   -1.3,   -0.6,   -0.6,   -0.4,   -0.0,   -0.5,   -0.8,   -0.5,    0.3,    0.3,    1.0,    1.6,    0.8,    0.7,    1.6,    1.6,    1.0,    0.3,  999.0,  999.0,  999.0,  999.0,    0.3,   -0.3,   -1.0,   -1.2,   -1.1,   -0.6,   -1.1,   -2.2,  999.0,  999.0,  999.0,  999.0,  999.0,  999.0,  999.0,  999.0,  999.0,  999.0,  999.0,  999.0,  999.0,  999.0,  999.0,  999.0,  999.0,  999.0,  999.0,  999.0,  999.0,  999.0,   -3.5,   -3.3,   -3.9,  999.0,  999.0,  999.0,  999.0,  999.0,  999.0,  999.0,  999.0,  999.0,  999.0,  999.0,    1.1,    1.1,    1.5,    1.8,    1.3,    1.5,    1.4,  999.0,  999.0,  999.0,  999.0,  999.0,  999.0,  999.0,  999.0,  999.0,  999.0,  999.0,  999.0,  999.0,  999.0,  999.0,  999.0,  999.0
2011/01/10 10:00,  999.0,   -2.4,   -2.2,   -3.6,  999.0,  999.0,  999.0,   -1.6,   -1.3,   -0.4,   -0.7,   -0.7,   -0.4,   -0.3,   -0.8,   -0.2,    0.4,    0.4,    0.8,    1.3,    1.2,    0.6,    1.5,    1.1,    1.1,    0.6,  999.0,   -1.8,  999.0,   -1.1,   -0.6,    0.2,   -0.4,   -0.4,   -0.4,   -0.2,   -0.6,   -1.4,   -1.9,  999.0,  999.0,  999.0,  999.0,  999.0,  999.0,  999.0,  999.0,  999.0,  999.0,  999.0,  999.0,  999.0,  999.0,  999.0,  999.0,  999.0,  999.0,  999.0,  999.0,   -1.8,   -2.3,   -2.7,   -2.8,  999.0,  999.0,  999.0,  999.0,  999.0,  999.0,  999.0,  999.0,  999.0,   -2.5,   -0.8,    0.1,    0.4,    0.8,    0.6,  999.0,    0.6,  999.0,  999.0,  999.0,  999.0,  999.0,  999.0,  999.0,  999.0,  999.0,  999.0,  999.0,  999.0,  999.0,  999.0,  999.0,  999.0,  999.0,  999.0
2011/01/10 10:10,   -0.5,   -1.5,   -2.3,  999.0,  999.0,   -0.6,  999.0,   -0.3,   -1.2,   -0.5,   -0.5,   -0.0,   -0.4,   -0.4,   -0.8,   -0.6,    0.3,    0.3,    1.1,    1.6,    1.4,    1.1,    1.6,    1.9,    1.3,    0.6,   -1.5,   -1.3,   -2.4,   -2.0,   -0.9,   -0.6,   -0.7,   -1.0,   -1.0,   -1.2,   -1.4,   -2.1,  999.0,  999.0,  999.0,  999.0,  999.0,  999.0,  999.0,  999.0,  999.0,  999.0,  999.0,  999.0,  999.0,  999.0,  999.0,  999.0,  999.0,  999.0,  999.0,  999.0,  999.0,   -2.3,   -2.8,   -3.1,   -3.4,  999.0,  999.0,  999.0,  999.0,  999.0,  999.0,  999.0,  999.0,  999.0,  999.0,   -6.7,   -6.3,   -5.6,  999.0,  999.0,  999.0,  999.0,  999.0,  999.0,  999.0,  999.0,  999.0,  999.0,  999.0,  999.0,  999.0,  999.0,  999.0,  999.0,  999.0,  999.0,  999.0,  999.0,  999.0,  999.0
2011/01/10 10:20,   -0.2,  999.0,   -2.5,   -2.3,   -1.6,   -1.9,  999.0,    0.3,   -1.0,   -0.3,  999.0,   -0.2,   -0.8,   -1.5,   -1.1,   -0.7,    0.0,    0.8,    1.6,    2.3,    1.6,    1.4,    1.7,    1.9,    1.5,    0.2,   -1.3,   -2.6,   -2.6,   -2.6,   -1.6,   -0.6,   -1.0,   -0.9,   -0.9,   -1.2,   -1.5,   -2.5,  999.0,  999.0,  999.0,  999.0,  999.0,  999.0,  999.0,  999.0,  999.0,  999.0,  999.0,  999.0,  999.0,  999.0,  999.0,  999.0,  999.0,  999.0,  999.0,  999.0,  999.0,  999.0,  999.0,  999.0,  999.0,  999.0,  999.0,  999.0,  999.0,  999.0,  999.0,  999.0,  999.0,  999.0,  999.0,  999.0,  999.0,  999.0,  999.0,  999.0,  999.0,  999.0,  999.0,  999.0,  999.0,  999.0,  999.0,  999.0,  999.0,  999.0,  999.0,  999.0,  999.0,  999.0,  999.0,  999.0,  999.0,  999.0,  999.0,  999.0
2011/01/10 10:30,  999.0,  999.0,  999.0,  999.0,  999.0,  999.0,  999.0,   -0.8,   -0.7,   -0.9,   -2.7,   -1.8,   -0.2,   -0.2,  999.0,   -0.6,   -0.1,    0.9,    1.6,    1.8,    1.4,  999.0,    2.0,    1.9,    1.5,   -0.0,  999.0,  999.0,   -2.7,   -3.0,   -1.8,   -1.0,   -1.4,   -1.0,   -1.3,   -1.6,   -1.4,   -1.7,  999.0,  999.0,  999.0,  999.0,  999.0,  999.0,  999.0,  999.0,  999.0,  999.0,  999.0,  999.0,  999.0,  999.0,  999.0,  999.0,  999.0,  999.0,  999.0,   -4.0,  999.0,  999.0,  999.0,  999.0,   -2.7,   -3.4,  999.0,  999.0,  999.0,  999.0,  999.0,  999.0,  999.0,  999.0,  999.0,  999.0,  999.0,  999.0,  999.0,  999.0,  999.0,  999.0,  999.0,  999.0,  999.0,  999.0,  999.0,  999.0,  999.0,  999.0,  999.0,  999.0,  999.0,  999.0,  999.0,  999.0,  999.0,  999.0,  999.0,  999.0
2011/01/10 10:40,   -0.9,   -1.5,   -1.8,   -3.4,   -3.3,   -0.5,   -0.9,  999.0,  999.0,   -0.6,   -0.0,    0.3,    0.1,   -0.6,   -0.6,   -0.4,   -0.1,    0.5,    0.8,    1.6,    1.7,    1.5,    2.3,    2.0,    1.4,    0.1,  999.0,  999.0,   -3.3,   -3.1,   -2.1,   -1.3,   -1.6,   -1.4,   -2.2,   -2.7,   -2.0,   -2.2,  999.0,  999.0,  999.0,  999.0,  999.0,  999.0,  999.0,  999.0,  999.0,  999.0,  999.0,  999.0,  999.0,  999.0,  999.0,  999.0,  999.0,  999.0,  999.0,   -3.5,  999.0,   -1.4,   -1.7,   -2.7,  999.0,   -2.4,  999.0,  999.0,  999.0,  999.0,  999.0,  999.0,  999.0,  999.0,  999.0,  999.0,  999.0,  999.0,  999.0,  999.0,  999.0,  999.0,  999.0,  999.0,  999.0,  999.0,  999.0,  999.0,  999.0,  999.0,  999.0,  999.0,  999.0,  999.0,  999.0,  999.0,  999.0,  999.0,  999.0,  999.0
2011/01/10 10:50,   -0.7,  999.0,  999.0,  999.0,  999.0,  999.0,  999.0,  999.0,  999.0,  999.0,   -0.2,    0.1,   -0.7,   -1.2,   -1.1,   -0.9,   -0.5,   -0.2,    0.4,    1.1,    0.6,    0.8,    1.5,    1.1,    0.4,   -0.2,   -0.9,  999.0,   -2.6,   -2.6,   -1.7,   -1.1,   -1.5,   -1.7,   -2.3,   -2.8,   -2.6,   -2.2,   -2.6,  999.0,  999.0,  999.0,  999.0,  999.0,  999.0,  999.0,  999.0,  999.0,  999.0,  999.0,  999.0,  999.0,  999.0,  999.0,  999.0,  999.0,  999.0,   -4.5,   -4.9,  999.0,   -3.1,   -3.2,  999.0,  999.0,  999.0,  999.0,  999.0,  999.0,  999.0,  999.0,  999.0,  999.0,  999.0,  999.0,  999.0,  999.0,  999.0,  999.0,  999.0,  999.0,  999.0,  999.0,  999.0,  999.0,  999.0,  999.0,  999.0,  999.0,  999.0,  999.0,  999.0,  999.0,  999.0,  999.0,  999.0,  999.0,  999.0,  999.0
2011/01/10 11:00,  999.0,  999.0,  999.0,   -0.6,  999.0,  999.0,  999.0,  999.0,  999.0,   -2.0,   -1.2,   -0.5,   -0.0,   -1.0,   -1.5,   -1.1,   -0.5,   -0.7,   -0.2,    0.2,   -0.2,    0.5,    0.8,    0.5,   -0.5,   -1.6,   -3.4,   -3.0,   -3.6,   -2.7,   -1.3,   -2.0,   -1.9,   -1.9,   -2.2,   -2.5,   -1.6,  999.0,  999.0,  999.0,  999.0,  999.0,  999.0,  999.0,  999.0,  999.0,  999.0,  999.0,  999.0,  999.0,  999.0,  999.0,  999.0,  999.0,  999.0,  999.0,  999.0,  999.0,  999.0,  999.0,  999.0,  999.0,  999.0,  999.0,  999.0,  999.0,  999.0,  999.0,  999.0,  999.0,  999.0,  999.0,  999.0,  999.0,  999.0,  999.0,  999.0,  999.0,    1.3,  999.0,  999.0,  999.0,  999.0,  999.0,  999.0,  999.0,  999.0,  999.0,  999.0,  999.0,  999.0,  999.0,  999.0,  999.0,  999.0,  999.0,  999.0,  999.0
2011/01/10 11:10,   -0.1,  999.0,   -1.3,   -2.2,  999.0,  999.0,  999.0,  999.0,  999.0,   -1.7,   -1.4,   -0.5,   -0.6,   -1.0,   -1.9,   -1.4,   -1.4,   -1.2,   -0.4,   -0.2,  999.0,  999.0,  999.0,    0.5,   -0.2,   -0.9,  999.0,   -4.2,   -3.5,   -3.5,   -2.3,   -1.3,   -1.9,   -1.9,   -1.8,   -2.1,   -1.5,  999.0,  999.0,  999.0,  999.0,  999.0,  999.0,  999.0,  999.0,  999.0,   -1.3,  999.0,  999.0,  999.0,  999.0,  999.0,  999.0,  999.0,  999.0,  999.0,  999.0,  999.0,  999.0,  999.0,  999.0,  999.0,  999.0,  999.0,  999.0,  999.0,  999.0,  999.0,  999.0,  999.0,  999.0,  999.0,  999.0,  999.0,  999.0,  999.0,  999.0,    0.4,    0.7,  999.0,  999.0,  999.0,  999.0,  999.0,  999.0,  999.0,  999.0,  999.0,  999.0,  999.0,  999.0,  999.0,  999.0,  999.0,  999.0,  999.0,  999.0,  999.0
2011/01/10 11:20,   -1.6,   -2.1,   -1.6,   -2.2,  999.0,  999.0,   -2.7,   -1.4,   -1.4,   -1.5,   -1.5,   -0.9,   -1.0,   -1.6,   -1.5,   -1.1,   -1.1,   -1.0,   -0.3,   -0.3,  999.0,  999.0,   -0.0,   -0.8,   -1.1,   -2.4,  999.0,   -4.8,   -3.7,   -3.6,   -2.9,   -1.6,   -1.7,   -1.5,   -1.6,   -2.0,  999.0,  999.0,  999.0,  999.0,  999.0,  999.0,  999.0,  999.0,  999.0,  999.0,  999.0,  999.0,  999.0,  999.0,  999.0,  999.0,  999.0,  999.0,  999.0,  999.0,  999.0,  999.0,  999.0,  999.0,  999.0,  999.0,  999.0,  999.0,  999.0,  999.0,  999.0,  999.0,  999.0,  999.0,  999.0,  999.0,  999.0,  999.0,  999.0,  999.0,  999.0,  999.0,  999.0,  999.0,  999.0,  999.0,  999.0,  999.0,  999.0,  999.0,  999.0,  999.0,  999.0,  999.0,  999.0,  999.0,  999.0,  999.0,  999.0,  999.0,  999.0,  999.0
2011/01/10 11:30,   -2.0,   -1.5,   -2.4,   -3.2,   -2.9,   -3.7,   -3.1,   -1.8,   -1.1,   -1.1,   -0.9,   -0.5,   -0.3,   -0.4,   -0.7,   -1.2,   -1.1,   -0.8,  999.0,    0.3,   -0.8,   -0.9,   -0.1,   -0.9,   -1.6,   -2.9,  999.0,   -5.1,  999.0,   -3.9,   -2.6,   -1.8,   -1.9,   -1.6,  999.0,   -2.0,   -1.6,   -0.9,  999.0,  999.0,  999.0,  999.0,  999.0,  999.0,  999.0,  999.0,  999.0,  999.0,  999.0,  999.0,  999.0,  999.0,  999.0,  999.0,  999.0,  999.0,  999.0,  999.0,  999.0,  999.0,  999.0,  999.0,  999.0,  999.0,  999.0,  999.0,  999.0,  999.0,  999.0,  999.0,  999.0,  999.0,  999.0,  999.0,  999.0,  999.0,  999.0,  999.0,  999.0,  999.0,  999.0,  999.0,  999.0,  999.0,  999.0,  999.0,  999.0,  999.0,  999.0,  999.0,  999.0,  999.0,  999.0,  999.0,  999.0,  999.0,  999.0,  999.0
2011/01/10 11:40,  999.0,  999.0,   -2.4,   -2.7,   -3.0,   -2.8,   -3.6,   -2.5,   -1.7,   -1.5,   -0.6,    0.4,   -0.1,   -0.1,   -0.8,  999.0,   -1.1,   -0.8,   -0.4,  999.0,  999.0,   -1.4,   -1.1,   -1.0,   -1.7,   -2.4,  999.0,   -4.1,   -4.4,   -3.3,   -2.4,   -1.5,   -1.5,   -1.6,   -1.4,   -2.2,  999.0,  999.0,  999.0,  999.0,  999.0,  999.0,  999.0,  999.0,  999.0,  999.0,  999.0,  999.0,  999.0,  999.0,  999.0,  999.0,  999.0,  999.0,  999.0,  999.0,  999.0,   -2.8,  999.0,  999.0,  999.0,  999.0,  999.0,  999.0,  999.0,  999.0,  999.0,  999.0,  999.0,  999.0,  999.0,  999.0,  999.0,  999.0,  999.0,  999.0,  999.0,  999.0,  999.0,  999.0,  999.0,  999.0,  999.0,  999.0,  999.0,  999.0,  999.0,  999.0,  999.0,  999.0,  999.0,  999.0,  999.0,  999.0,  999.0,  999.0,  999.0,  999.0
2011/01/10 11:50,   -1.7,   -2.9,   -2.9,   -3.4,   -3.4,   -3.7,   -3.1,   -2.8,   -2.4,   -2.0,   -1.3,   -0.1,   -0.3,   -0.3,   -0.2,   -1.3,   -1.2,   -0.6,  999.0,   -0.2,   -0.9,   -0.5,    0.3,   -1.0,   -1.9,   -3.6,  999.0,   -3.8,  999.0,   -2.8,   -2.2,   -1.5,   -1.3,   -1.0,   -1.1,   -1.3,   -1.2,  999.0,  999.0,  999.0,  999.0,  999.0,  999.0,  999.0,  999.0,  999.0,   -2.4,  999.0,  999.0,  999.0,  999.0,  999.0,  999.0,  999.0,  999.0,  999.0,  999.0,  999.0,  999.0,  999.0,  999.0,  999.0,  999.0,  999.0,  999.0,  999.0,  999.0,  999.0,  999.0,  999.0,  999.0,  999.0,  999.0,  999.0,  999.0,  999.0,  999.0,  999.0,  999.0,  999.0,  999.0,  999.0,  999.0,  999.0,  999.0,   -1.6,   -1.5,   -1.3,   -1.4,   -1.0,   -0.8,   -0.5,   -0.0,    0.4,    1.2,    1.7,    2.2,    2.4
2011/01/10 12:00,  999.0,   -2.2,   -2.3,   -2.8,   -3.3,   -3.7,   -3.6,   -3.0,   -2.3,   -1.9,   -0.9,   -0.7,   -1.2,   -0.9,   -0.9,   -1.0,   -1.2,   -0.9,  999.0,   -0.4,   -0.9,   -0.9,    0.1,   -0.9,   -2.1,   -3.8,  999.0,   -4.4,  999.0,  999.0,   -3.0,   -2.2,   -2.0,  999.0,   -2.0,   -2.3,  999.0,  999.0,  999.0,  999.0,  999.0,  999.0,  999.0,  999.0,  999.0,  999.0,   -2.9,  999.0,  999.0,  999.0,  999.0,  999.0,  999.0,  999.0,  999.0,  999.0,  999.0,   -3.5,  999.0,  999.0,  999.0,  999.0,  999.0,  999.0,  999.0,  999.0,  999.0,  999.0,  999.0,  999.0,  999.0,  999.0,  999.0,  999.0,  999.0,  999.0,  999.0,  999.0,  999.0,  999.0,  999.0,  999.0,  999.0,  999.0,  999.0,   -1.6,  999.0,   -1.4,   -1.6,   -0.9,   -0.6,   -0.8,   -0.1,    0.1,    0.4,    1.1,    1.8,    2.5
2011/01/10 12:10,   -0.2,   -2.1,   -2.2,   -3.0,   -3.6,   -4.3,   -4.6,   -3.0,   -2.7,   -1.5,   -1.4,   -1.0,   -1.2,   -0.7,   -1.3,   -1.3,   -1.2,   -0.5,    0.2,   -0.1,   -1.0,   -1.2,  999.0,   -0.9,   -2.0,   -3.6,  999.0,   -3.9,  999.0,   -2.7,   -2.6,   -1.9,   -1.5,   -1.4,   -1.6,   -1.8,  999.0,  999.0,  999.0,  999.0,  999.0,  999.0,  999.0,  999.0,  999.0,   -2.9,  999.0,  999.0,  999.0,  999.0,  999.0,  999.0,  999.0,  999.0,  999.0,  999.0,   -2.7,   -3.1,  999.0,  999.0,  999.0,  999.0,  999.0,  999.0,  999.0,  999.0,  999.0,  999.0,  999.0,  999.0,  999.0,  999.0,  999.0,  999.0,  999.0,  999.0,  999.0,  999.0,  999.0,  999.0,  999.0,  999.0,  999.0,  999.0,  999.0,  999.0,  999.0,  999.0,  999.0,   -0.5,   -0.8,   -1.2,  999.0,   -0.6,   -0.0,    0.3,    0.7,    1.6
2011/01/10 12:20,  999.0,   -1.9,   -3.2,   -2.9,   -3.0,   -4.2,  999.0,   -2.5,   -1.5,   -0.9,   -0.8,   -0.6,   -0.6,   -0.2,   -0.4,   -0.7,   -0.2,    0.6,    0.6,    0.2,   -0.6,   -0.5,    0.5,   -1.4,   -2.7,   -3.2,   -4.8,  999.0,   -3.7,  999.0,  999.0,   -1.4,  999.0,   -1.4,   -1.4,  999.0,  999.0,   -0.7,  999.0,  999.0,  999.0,  999.0,  999.0,  999.0,  999.0,  999.0,  999.0,  999.0,  999.0,  999.0,  999.0,  999.0,  999.0,  999.0,  999.0,  999.0,   -2.8,  999.0,  999.0,  999.0,  999.0,  999.0,  999.0,  999.0,  999.0,  999.0,  999.0,  999.0,  999.0,  999.0,  999.0,  999.0,  999.0,  999.0,  999.0,  999.0,  999.0,  999.0,  999.0,  999.0,  999.0,  999.0,  999.0,  999.0,  999.0,  999.0,  999.0,  999.0,  999.0,   -0.8,    0.2,  999.0,  999.0,  999.0,  999.0,  999.0,  999.0,  999.0
2011/01/10 12:30,   -0.3,   -2.6,  999.0,  999.0,  999.0,  999.0,  999.0,  999.0,  999.0,   -0.9,   -0.6,   -0.1,   -0.7,   -0.2,   -0.0,   -0.3,    0.1,    0.7,    0.2,   -0.0,   -0.6,   -0.0,   -0.8,   -1.9,   -3.1,   -4.4,  999.0,   -4.4,  999.0,   -2.5,   -1.8,   -1.7,   -1.7,   -1.8,   -1.6,   -1.7,   -0.7,   -1.3,   -2.1,  999.0,  999.0,  999.0,  999.0,  999.0,  999.0,   -1.6,   -1.3,  999.0,  999.0,  999.0,  999.0,  999.0,  999.0,  999.0,  999.0,  999.0,  999.0,  999.0,  999.0,  999.0,  999.0,  999.0,  999.0,  999.0,  999.0,  999.0,  999.0,  999.0,  999.0,  999.0,  999.0,  999.0,  999.0,  999.0,  999.0,  999.0,  999.0,  999.0,  999.0,  999.0,  999.0,  999.0,  999.0,  999.0,  999.0,  999.0,  999.0,  999.0,  999.0,  999.0,  999.0,  999.0,  999.0,  999.0,  999.0,  999.0,  999.0,  999.0
2011/01/10 12:40,  999.0,    0.2,  999.0,  999.0,  999.0,  999.0,  999.0,   -0.9,  999.0,   -0.5,   -0.1,    0.3,  999.0,   -0.0,   -0.2,   -0.2,    0.1,    0.7,    1.1,    0.2,   -0.1,   -0.3,   -0.4,   -1.0,   -2.5,   -4.3,   -4.8,   -4.5,  999.0,   -2.3,   -1.8,   -1.6,   -1.8,   -1.8,   -1.9,   -1.1,  999.0,  999.0,   -1.6,   -1.8,  999.0,  999.0,  999.0,  999.0,  999.0,  999.0,  999.0,  999.0,  999.0,  999.0,  999.0,  999.0,  999.0,  999.0,  999.0,  999.0,  999.0,  999.0,  999.0,  999.0,  999.0,  999.0,  999.0,  999.0,  999.0,  999.0,  999.0,  999.0,  999.0,  999.0,  999.0,  999.0,  999.0,  999.0,  999.0,  999.0,  999.0,  999.0,  999.0,  999.0,  999.0,  999.0,  999.0,  999.0,  999.0,  999.0,  999.0,  999.0,  999.0,  999.0,  999.0,  999.0,  999.0,  999.0,  999.0,  999.0,  999.0,  999.0
2011/01/10 12:50,  999.0,  999.0,  999.0,  999.0,  999.0,   -2.0,  999.0,  999.0,   -0.9,   -0.5,  999.0,   -0.2,    0.0,   -0.2,   -0.1,   -0.4,    0.1,    0.5,    0.7,   -0.1,   -1.6,  999.0,   -1.0,   -1.7,  999.0,  999.0,  999.0,  999.0,  999.0,   -3.2,   -2.4,   -2.2,   -2.3,   -2.3,   -2.3,   -1.7,   -1.4,   -1.5,   -1.8,  999.0,  999.0,  999.0,  999.0,  999.0,  999.0,  999.0,  999.0,  999.0,  999.0,   -1.6,   -1.9,  999.0,  999.0,  999.0,  999.0,  999.0,  999.0,  999.0,   -0.5,   -0.3,   -0.2,    0.5,  999.0,  999.0,  999.0,  999.0,  999.0,  999.0,  999.0,  999.0,  999.0,  999.0,  999.0,  999.0,  999.0,  999.0,  999.0,  999.0,  999.0,  999.0,  999.0,  999.0,  999.0,  999.0,  999.0,  999.0,  999.0,  999.0,  999.0,  999.0,  999.0,  999.0,  999.0,  999.0,  999.0,  999.0,  999.0,  999.0
2011/01/10 13:00,  999.0,  999.0,   -2.4,   -2.9,   -3.0,   -3.3,   -2.9,   -4.0,   -2.2,   -0.3,   -0.3,   -0.5,   -0.9,   -0.1,   -0.2,   -0.8,   -0.3,    0.6,  999.0,    0.2,   -1.1,   -1.8,  999.0,   -1.2,   -2.2,   -4.0,  999.0,   -5.2,   -5.1,  999.0,   -2.7,   -2.3,   -2.5,   -2.3,   -2.4,   -2.2,   -1.4,   -1.5,   -1.5,   -1.8,  999.0,  999.0,  999.0,  999.0,  999.0,   -0.8,  999.0,  999.0,  999.0,   -0.9,   -1.3,  999.0,  999.0,  999.0,  999.0,  999.0,  999.0,  999.0,    0.1,    0.5,    0.4,    0.4,  999.0,  999.0,  999.0,  999.0,  999.0,  999.0,  999.0,  999.0,  999.0,  999.0,  999.0,  999.0,  999.0,  999.0,  999.0,  999.0,  999.0,  999.0,  999.0,  999.0,  999.0,  999.0,  999.0,  999.0,  999.0,  999.0,  999.0,  999.0,  999.0,  999.0,  999.0,  999.0,  999.0,  999.0,  999.0,  999.0
2011/01/10 13:10,   -0.1,  999.0,   -2.2,  999.0,   -1.2,   -2.1,   -1.5,   -2.6,   -3.0,   -1.5,   -2.3,   -1.3,   -0.8,   -1.2,   -0.4,  999.0,   -0.7,   -0.4,   -0.3,    0.5,  999.0,   -0.8,  999.0,  999.0,   -1.0,   -2.3,  999.0,   -5.3,   -4.5,   -4.6,  999.0,   -2.7,   -2.8,   -2.7,   -2.9,   -2.7,   -2.5,   -1.5,  999.0,   -1.6,  999.0,  999.0,  999.0,  999.0,  999.0,   -1.9,  999.0,  999.0,  999.0,  999.0,  999.0,  999.0,  999.0,  999.0,  999.0,   -2.1,  999.0,  999.0,   -1.0,   -0.5,   -0.4,  999.0,  999.0,  999.0,  999.0,  999.0,  999.0,  999.0,  999.0,  999.0,  999.0,  999.0,  999.0,  999.0,  999.0,  999.0,  999.0,  999.0,  999.0,  999.0,  999.0,  999.0,  999.0,  999.0,  999.0,  999.0,  999.0,  999.0,  999.0,  999.0,  999.0,  999.0,  999.0,  999.0,  999.0,  999.0,  999.0,  999.0
2011/01/10 13:20,  999.0,  999.0,  999.0,  999.0,   -1.0,   -2.1,   -1.8,   -2.1,   -1.9,   -0.7,   -1.3,   -0.8,   -1.4,  999.0,   -1.5,   -1.7,   -0.7,  999.0,    0.5,    0.8,    0.0,   -0.5,   -0.4,   -1.0,   -2.0,  999.0,  999.0,  999.0,   -4.9,   -4.8,   -5.0,   -2.9,   -2.9,   -3.3,   -3.2,   -3.0,   -2.7,   -2.2,   -1.4,  999.0,  999.0,  999.0,  999.0,  999.0,  999.0,  999.0,  999.0,  999.0,  999.0,  999.0,  999.0,  999.0,  999.0,  999.0,  999.0,   -2.2,   -2.3,   -1.7,   -1.1,   -0.7,  999.0,  999.0,  999.0,  999.0,  999.0,  999.0,  999.0,  999.0,  999.0,  999.0,  999.0,  999.0,  999.0,  999.0,  999.0,  999.0,  999.0,  999.0,  999.0,  999.0,  999.0,  999.0,  999.0,  999.0,  999.0,  999.0,  999.0,  999.0,  999.0,  999.0,  999.0,  999.0,  999.0,  999.0,  999.0,  999.0,  999.0,  999.0
2011/01/10 13:30,  999.0,  999.0,  999.0,  999.0,  999.0,   -3.2,   -2.3,   -1.8,   -1.8,   -0.9,   -1.2,   -1.7,  999.0,   -1.2,   -1.0,   -0.8,   -0.5,  999.0,    0.4,  999.0,    0.1,   -0.9,   -0.4,   -0.0,   -0.6,   -3.4,   -4.0,   -5.1,   -4.5,   -4.2,   -3.7,   -2.4,   -2.5,   -3.0,   -2.8,   -2.5,   -2.7,  999.0,  999.0,  999.0,  999.0,  999.0,  999.0,  999.0,  999.0,  999.0,  999.0,  999.0,  999.0,  999.0,  999.0,   -1.5,  999.0,  999.0,  999.0,   -2.2,   -2.6,   -2.5,   -1.9,  999.0,  999.0,  999.0,  999.0,  999.0,  999.0,  999.0,  999.0,  999.0,  999.0,  999.0,  999.0,  999.0,  999.0,  999.0,  999.0,  999.0,  999.0,  999.0,  999.0,  999.0,  999.0,  999.0,  999.0,  999.0,  999.0,  999.0,  999.0,  999.0,  999.0,  999.0,  999.0,  999.0,  999.0,  999.0,  999.0,  999.0,  999.0,  999.0
2011/01/10 13:40,    0.0,  999.0,  999.0,  999.0,  999.0,   -1.2,   -2.1,   -1.8,   -2.7,   -0.7,   -1.3,   -1.3,   -1.6,   -1.0,   -0.7,   -1.4,   -1.2,   -0.9,   -0.4,  999.0,    0.2,   -0.2,   -0.5,  999.0,   -0.5,   -1.9,   -3.8,   -5.1,   -5.7,   -4.5,   -4.2,   -3.3,   -3.1,   -3.4,   -3.3,   -3.4,   -3.4,  999.0,  999.0,  999.0,  999.0,  999.0,  999.0,  999.0,  999.0,  999.0,  999.0,  999.0,  999.0,  999.0,  999.0,  999.0,  999.0,  999.0,   -2.2,   -2.7,   -2.4,   -1.8,   -1.4,   -0.4,  999.0,  999.0,  999.0,  999.0,   -2.4,  999.0,   -1.9,  999.0,  999.0,  999.0,  999.0,  999.0,  999.0,  999.0,  999.0,  999.0,  999.0,  999.0,  999.0,  999.0,  999.0,  999.0,  999.0,  999.0,  999.0,  999.0,  999.0,  999.0,  999.0,  999.0,  999.0,  999.0,  999.0,  999.0,  999.0,  999.0,  999.0,  999.0
2011/01/10 13:50,    0.0,  999.0,  999.0,  999.0,  999.0,   -0.9,   -1.3,   -0.4,   -0.4,   -0.3,   -0.6,   -0.8,   -1.3,   -1.4,   -1.6,   -2.0,   -1.7,   -1.7,   -1.2,   -0.2,    0.1,    0.2,    0.0,    0.0,   -0.5,   -1.5,   -3.2,   -4.7,   -5.4,   -4.9,   -4.5,   -4.2,   -3.6,   -4.1,   -3.9,   -3.9,   -4.0,  999.0,   -1.8,   -2.1,  999.0,  999.0,  999.0,  999.0,  999.0,  999.0,  999.0,   -1.1,  999.0,   -1.1,   -1.7,   -1.4,  999.0,   -1.3,   -1.9,   -2.5,   -1.4,   -0.8,   -0.9,  999.0,  999.0,  999.0,  999.0,  999.0,  999.0,  999.0,   -1.6,   -1.1,   -0.0,    0.5,    0.5,   -0.5,  999.0,  999.0,  999.0,  999.0,  999.0,  999.0,  999.0,  999.0,  999.0,  999.0,  999.0,  999.0,  999.0,  999.0,  999.0,  999.0,  999.0,  999.0,  999.0,  999.0,  999.0,  999.0,  999.0,  999.0,  999.0,  999.0
2011/01/10 14:00,  999.0,    0.1,   -0.7,   -1.0,   -1.1,   -1.6,   -1.7,   -2.4,   -2.5,   -2.8,   -2.7,   -3.6,   -2.8,   -2.1,   -1.9,   -2.3,   -1.5,   -1.2,   -1.5,   -1.7,   -1.3,    1.1,    0.5,    0.8,   -1.3,   -3.1,   -4.5,  999.0,   -4.8,   -4.8,   -4.1,   -4.2,   -3.6,   -4.2,   -4.1,   -4.1,   -3.7,  999.0,   -3.0,   -2.9,  999.0,  999.0,  999.0,  999.0,  999.0,  999.0,  999.0,   -1.5,   -1.8,  999.0,   -2.0,   -2.7,   -2.3,  999.0,   -2.4,   -1.8,   -1.3,   -0.3,    0.2,  999.0,  999.0,  999.0,  999.0,   -2.8,   -2.1,  999.0,   -2.0,   -1.9,   -2.1,   -1.1,   -2.8,  999.0,   -2.4,  999.0,  999.0,  999.0,  999.0,  999.0,  999.0,  999.0,  999.0,  999.0,  999.0,  999.0,  999.0,  999.0,  999.0,  999.0,  999.0,  999.0,    7.6,    7.4,    6.7,    5.7,    5.2,  999.0,    5.4,  999.0
2011/01/10 14:10,   -4.7,  999.0,  999.0,  999.0,  999.0,  999.0,   -2.2,   -3.2,   -3.7,   -3.8,   -2.7,   -2.4,   -2.2,   -2.4,   -1.3,   -1.3,   -1.6,   -1.7,   -1.5,   -1.1,   -0.8,   -1.4,   -2.2,   -2.9,  999.0,   -3.9,   -4.5,   -4.8,   -4.7,   -4.7,   -4.4,   -4.7,   -3.0,   -4.0,  999.0,   -3.6,   -3.3,  999.0,  999.0,  999.0,  999.0,  999.0,  999.0,  999.0,  999.0,  999.0,  999.0,   -2.2,   -2.5,   -2.0,   -2.2,   -2.2,   -2.4,   -2.3,   -2.5,   -2.7,   -1.8,   -2.5,   -0.4,  999.0,   -3.6,   -3.7,   -4.8,   -5.3,   -4.8,   -7.3,   -7.1,  999.0,  999.0,  999.0,  999.0,  999.0,  999.0,   -1.7,   -1.5,   -0.9,   -0.4,   -0.6,  999.0,  999.0,    0.0,   -0.7,   -0.0,    0.3,    0.3,    0.5,   -0.3,   -0.4,   -0.9,   -0.8,    1.2,    1.4,    0.4,    0.5,    1.9,    1.8,    4.1,  999.0
2011/01/10 14:20,  999.0,  999.0,  999.0,  999.0,  999.0,  999.0,  999.0,   -1.7,   -2.2,   -3.4,   -4.1,   -3.9,   -3.7,   -3.8,   -3.4,   -3.8,   -3.9,   -4.0,   -3.3,   -2.5,   -2.5,   -2.6,   -3.2,   -3.6,   -4.3,   -4.6,   -4.4,   -3.9,   -3.6,   -3.7,   -3.0,   -3.3,   -2.9,   -3.1,   -4.0,  999.0,  999.0,  999.0,  999.0,  999.0,  999.0,  999.0,  999.0,  999.0,   -2.9,   -2.3,   -4.3,   -4.7,   -3.6,   -3.1,   -2.5,   -2.4,   -2.1,   -3.5,   -4.5,   -5.0,   -5.9,   -7.1,   -8.3,   -8.6,   -7.8,   -7.7,   -8.7,   -7.7,   -8.1,   -6.9,   -6.4,   -6.6,   -6.5,   -5.8,   -4.5,   -2.5,   -1.1,   -0.2,    0.2,    0.1,   -0.1,   -0.1,    0.4,    0.8,    0.7,    0.5,    0.5,    0.4,    0.3,    0.3,    0.5,    0.6,    0.5,    0.3,    0.0,   -0.1,    0.2,    0.2,   -0.1,   -1.0,   -1.0,   -1.2
2011/01/10 14:30,  999.0,  999.0,   -2.9,  999.0,  999.0,   -2.4,   -5.8,   -3.9,   -5.5,   -6.3,   -6.5,   -7.0,   -7.4,   -6.4,   -6.7,   -6.7,   -5.3,   -3.7,   -3.0,  999.0,  999.0,  999.0,   -2.2,   -6.2,   -5.2,   -5.7,   -5.5,   -6.1,   -5.4,   -5.1,   -5.2,   -5.2,   -4.9,   -4.0,   -4.4,   -4.6,   -3.0,   -2.5,   -2.1,   -2.2,   -2.2,   -2.3,   -2.6,   -3.9,   -3.5,   -4.1,   -3.6,   -3.6,   -3.8,   -4.1,   -3.9,   -4.2,   -4.8,   -4.9,   -4.6,   -4.7,   -6.2,   -6.8,   -6.7,   -6.8,   -6.3,   -6.3,   -7.3,   -6.4,   -5.4,   -5.4,   -3.1,   -3.0,   -2.2,   -2.7,   -2.3,   -2.2,   -2.6,   -2.7,   -2.8,   -1.5,   -1.1,   -0.7,   -0.6,   -0.1,   -0.3,    0.8,    2.6,    2.8,    2.6,    1.9,    2.4,    2.8,    3.4,    5.0,    3.7,    4.0,    6.5,    4.3,    4.2,    3.8,    2.1,  999.0
2011/01/10 14:40,  999.0,   -3.2,   -4.1,   -8.3,   -3.1,   -1.1,   -1.1,   -2.8,   -1.4,   -3.1,   -2.2,   -0.9,   -1.9,   -3.9,   -0.3,   -0.7,   -0.9,    0.2,    0.7,    1.5,    1.0,    3.1,    3.1,    1.5,    3.0,   -1.1,   -2.2,    0.6,   -2.2,   -1.3,   -1.4,   -0.3,   -1.3,   -1.4,   -1.0,   -0.3,   -0.4,   -1.9,  999.0,   -2.1,   -4.6,   -6.3,   -5.1,   -5.8,   -5.5,   -5.4,   -6.7,   -7.1,  999.0,  999.0,  999.0,  -10.8,   -9.9,  -10.5,  -10.7,  -10.0,  -10.7,   -8.6,   -9.7,  -10.2,   -9.8,  -10.0,   -9.9,  -10.3,  -12.1,  -11.1,   -9.1,   -9.8,  -13.0,  -12.8,  -12.3,  -12.0,  999.0,   -9.6,  -11.7,  -11.6,   -7.6,  -14.3,  -10.1,  -10.5,  -12.1,  -16.9,  -14.1,  999.0,  -10.1,  -12.9,   -9.6,  -12.2,   -7.2,   -6.9,   -6.3,   -6.3,   -6.8,   -5.4,   -4.3,   -7.5,   -5.8,   -4.9
2011/01/10 14:50,    0.0,  999.0,    0.0,    2.1,    3.9,    4.1,    2.7,    3.0,    2.9,    2.8,    1.5,    1.1,    1.4,    0.9,    4.9,    3.3,    3.7,   -0.8,   -3.4,   -5.2,   -1.5,   -2.7,   -5.9,    1.0,   -0.3,  999.0,   -1.6,   -1.8,   -6.1,    1.7,    0.3,    1.4,    2.8,    3.2,    3.6,    7.1,    5.4,    5.8,   11.1,   10.0,  999.0,    9.7,    8.0,    4.6,    5.6,    2.1,    9.1,   -0.4,    0.3,    7.1,   -0.2,   -4.9,    3.5,    9.2,  999.0,  999.0,  999.0,   12.4,    3.4,    6.1,    3.3,   14.3,  999.0,    4.8,   22.5,   24.0,   23.7,   20.2,  999.0,    4.6,   14.3,    4.8,   -9.2,    3.8,  -11.2,  -10.3,  -12.1,   -9.8,  -11.2,  -11.3,  -10.0,   -8.6,  -10.3,   -9.8,   -5.7,    2.6,    4.7,   -5.0,  999.0,   -1.3,    6.9,  999.0,    5.2,    8.0,    3.1,    2.5,    6.4,  999.0
2011/01/10 15:00,   -0.1,    0.6,    4.5,  999.0,    4.8,    5.1,    4.3,    4.1,    4.0,    4.3,    4.0,    3.4,    4.6,   -9.3,    0.3,  -16.7,  999.0,  -14.1,  999.0,  -11.2,   -2.8,   -0.3,  999.0,  -12.7,    7.3,   12.2,   15.0,   19.9,   19.6,  999.0,   18.4,  999.0,  999.0,  999.0,  999.0,   27.6,  999.0,  999.0,  999.0,   16.0,   15.6,  999.0,    0.9,   11.0,    1.3,   14.2,  999.0,  999.0,   19.0,   12.1,   16.3,   24.0,   25.7,   26.2,   26.0,   26.2,   25.9,   26.2,   26.5,   23.8,   25.3,   26.4,   13.8,   15.7,  999.0,   14.4,  999.0,   15.5,  999.0,    9.3,   -4.1,  999.0,  999.0,   -5.6,  999.0,  999.0,  999.0,   -4.0,   -1.9,  999.0,  999.0,  999.0,    0.1,    0.8,   -0.3,  999.0,    5.7,  999.0,  999.0,    6.4,    2.9,    6.6,    5.2,  999.0,  999.0,  999.0,  999.0,  999.0
2011/01/10 15:10,   -0.4,   -0.5,   -0.4,   -1.2,    0.2,    1.1,    2.5,    3.8,    2.9,    2.9,    3.2,    0.9,    0.1,  999.0,  999.0,  999.0,  999.0,  -21.2,  -13.2,  -13.0,   -9.5,   -3.9,  -11.7,   -7.7,  999.0,   -4.6,  999.0,  999.0,  999.0,  -13.1,  -11.4,    0.4,  999.0,   -1.1,   -0.9,   -1.2,  999.0,   -2.0,    5.6,   -0.7,   -0.5,  999.0,    2.3,   -3.9,   -3.3,    2.0,    1.8,    1.7,    6.7,   -2.9,   13.5,    8.9,   -3.6,    3.0,   -3.0,    2.0,   -4.6,   -4.9,    8.9,    3.7,   -8.6,   -5.7,   -5.6,   -6.2,   -4.1,   -3.6,   -6.1,   -4.9,   -5.0,   -5.6,   -4.4,   -4.9,   -3.9,   -4.5,   -3.2,   -2.7,   -3.3,   -1.8,   -2.2,  999.0,   -0.2,   -1.9,    0.2,   -0.4,   -3.0,   -2.0,   -1.3,  999.0,  999.0,   -1.9,   -1.5,   -4.0,   -5.5,   -4.2,   -1.8,   -0.1,    0.4,    0.4
2011/01/10 15:20,   -0.9,  999.0,   -0.2,  999.0,    2.2,    2.2,    0.3,    2.7,    0.5,    0.8,    3.4,    3.0,    2.0,    0.4,   -2.0,  999.0,   -2.5,   -0.3,   -1.0,   -0.3,    0.6,    0.7,    0.9,   -0.1,   -1.8,   -1.8,   -1.0,   -2.3,   -2.4,   -2.4,   -2.4,   -2.5,   -2.9,   -2.4,   -4.4,   -5.2,   -5.9,   -5.9,   -5.6,   -5.3,   -4.7,   -4.1,   -4.4,   -3.9,   -3.5,   -3.0,  999.0,   -5.0,  999.0,  999.0,   -5.2,   -3.7,   -1.3,  999.0,   -3.6,   -4.4,   -3.1,   -2.4,    0.2,   -0.9,   -3.9,   -3.5,   -4.5,   -5.2,   -2.2,   -3.4,   -3.8,   -4.3,   -5.3,   -3.6,   -4.7,   -4.3,   -4.5,   -4.0,   -4.1,   -3.8,   -2.7,   -2.6,   -2.8,   -1.9,   -1.2,   -1.0,   -1.0,   -0.7,   -0.8,   -0.8,   -0.7,   -0.4,    0.1,   -0.1,    0.3,    0.9,    1.0,    1.9,    2.9,    1.5,    1.5,    1.7
2011/01/10 15:30,  999.0,   -0.4,    0.2,    1.4,    2.3,    1.3,    1.3,    0.6,   -1.8,   -1.7,   -2.1,   -2.0,   -1.9,   -3.4,   -4.0,   -4.2,   -4.4,   -4.1,   -3.5,   -4.8,   -3.1,   -3.5,   -2.4,   -3.6,   -4.9,   -4.6,   -4.7,   -4.6,   -4.7,   -4.8,   -4.9,   -6.1,   -5.2,   -4.9,   -5.8,   -6.5,   -6.7,   -6.5,   -6.2,   -6.5,   -6.3,   -6.4,   -7.3,   -6.2,   -6.6,   -6.2,   -5.9,   -7.4,   -4.9,   -5.1,   -5.3,   -5.9,   -5.6,   -6.4,   -7.5,   -7.9,   -8.1,   -8.0,   -7.2,  999.0,   -5.4,   -5.3,   -4.9,  999.0,  999.0,   -2.7,   -2.3,   -0.7,    0.8,    2.0,    2.3,   -0.8,  999.0,  999.0,    0.1,   -0.2,   -0.4,   -1.1,   -0.9,   -0.8,   -0.8,   -0.5,   -0.4,   -0.2,   -0.2,    0.2,    0.4,    0.4,    0.7,    0.8,    1.0,    1.3,    1.9,    2.9,    3.6,    4.1,    4.3,    4.1
2011/01/10 15:40,    1.5,    3.0,  999.0,   -1.3,   -0.7,   -6.7,   -5.3,  -10.1,   -4.2,   -5.1,   -6.4,   -2.4,   -2.1,   -0.9,   -3.4,   -2.7,   -4.0,   -3.2,   -1.6,   -3.0,   -2.7,   -4.3,   -4.2,  999.0,  999.0,  999.0,  999.0,   -3.4,  999.0,  999.0,   -3.4,  999.0,   -4.6,   -4.3,   -4.2,   -3.9,   -4.6,   -4.6,   -5.0,   -5.5,   -6.8,   -5.0,   -6.2,  999.0,   -4.7,   -4.7,   -4.3,   -2.6,   -2.1,   -2.5,   -3.4,   -4.0,   -4.8,   -4.7,   -4.3,  999.0,  999.0,   -3.7,   -3.8,   -4.1,   -4.1,  999.0,   -2.9,   -4.7,  999.0,   -2.8,   -3.5,   -2.7,   -2.2,   -1.7,   -1.3,   -1.0,   -0.3,   -0.1,   -0.0,    0.1,    0.2,   -0.1,   -0.3,   -0.4,   -0.3,   -0.1,    0.4,    0.5,    0.6,    0.8,    0.6,    0.6,    0.6,    1.1,    1.6,    2.1,    3.2,    4.3,    5.2,    6.2,    7.1,    7.6
2011/01/10 15:50,  999.0,  999.0,    4.2,    3.3,    1.7,    1.3,   -0.3,   -0.1,   -0.1,   -0.5,   -0.1,    2.6,    1.5,    1.4,   -5.8,   -5.1,    2.7,   -5.3,   -4.4,   -0.4,   -0.7,   -0.3,   -1.1,    0.3,    1.5,   -5.2,   -2.4,   -3.3,    1.0,   -6.0,   -2.7,   -2.4,   -3.3,   -3.3,  999.0,  999.0,  999.0,  999.0,  999.0,  999.0,  999.0,  999.0,  999.0,  999.0,  999.0,    3.0,  999.0,   -3.2,   -3.8,  999.0,  999.0,  999.0,  999.0,  999.0,   -4.8,   -5.2,   -5.6,   -5.2,  999.0,  999.0,  999.0,   -4.4,   -3.8,  999.0,  999.0,  999.0,  999.0,   -0.6,   -1.7,   -1.5,   -2.6,   -3.9,   -3.3,   -2.9,   -2.4,   -2.4,   -2.4,   -2.5,   -2.4,   -2.3,   -1.5,   -0.4,   -0.2,   -0.2,    0.0,    0.7,    1.0,    1.4,    1.5,    1.7,    2.0,    2.1,    2.2,    2.7,    3.3,    3.7,    4.8,    5.7
2011/01/10 16:00,    0.8,    0.4,   -0.8,   -1.4,   -1.8,   -0.8,   -1.3,   -0.4,    4.3,    5.8,    0.3,    0.1,    3.5,    3.7,    0.0,   -0.7,    0.1,    0.2,   -0.5,   -1.0,    1.0,    1.7,   -0.1,   -0.8,    1.0,    0.2,   -0.9,    0.4,   -1.0,   -0.8,   -0.8,   -0.6,   -0.9,    2.9,  999.0,  999.0,  999.0,  999.0,  999.0,  999.0,  999.0,  999.0,  999.0,    0.6,    0.4,    0.3,   -1.0,   -0.2,    0.1,   -0.2,   -0.3,   -1.0,   -0.8,   -1.5,   -2.9,   -2.8,   -2.4,   -1.3,   -2.0,   -1.9,   -2.5,   -1.8,   -2.0,   -2.6,   -2.9,   -2.3,   -2.1,   -1.7,   -2.1,   -2.3,   -2.4,   -2.2,   -1.9,   -1.5,   -1.4,   -1.3,   -1.2,   -0.9,   -0.9,   -0.8,   -0.1,    0.6,    1.7,    2.9,    3.5,    4.2,    4.8,    5.1,    4.8,    4.5,    4.4,    4.4,    4.3,    4.2,    4.3,    4.5,    5.0,    5.6
2011/01/10 16:10,    2.2,    0.4,   -0.5,   -0.4,   -0.4,   -1.2,   -2.7,   -3.0,   -2.6,   -2.6,   -2.2,   -2.5,   -2.9,   -2.9,   -2.7,   -2.7,   -2.4,   -2.5,   -2.3,   -2.8,   -3.5,   -2.6,   -1.5,   -1.7,   -1.4,   -0.4,    1.0,    1.3,    1.1,    0.3,    0.4,    0.2,   -2.0,   -0.1,    0.6,    0.8,   -1.9,  999.0,    0.1,   -1.4,   -2.0,   -1.8,   -2.6,   -3.1,   -4.3,  999.0,  999.0,   -1.1,  999.0,  999.0,   -0.3,    0.0,   -0.0,   -0.1,   -0.4,   -0.9,   -1.0,   -1.3,   -1.6,   -2.1,   -3.0,   -3.3,   -3.0,   -1.3,   -2.8,   -1.6,  999.0,  999.0,  999.0,  999.0,  999.0,  999.0,  999.0,   -2.2,   -2.7,   -2.0,   -1.5,   -1.1,   -0.4,   -0.3,    0.4,  999.0,    2.9,    3.3,    3.7,    4.1,    4.3,    5.2,    6.5,    6.8,    6.8,    6.6,    6.5,    6.7,    6.7,    6.9,    6.9,    7.2
2011/01/10 16:20,    3.5,    2.8,    1.5,    0.6,    0.8,    0.2,   -0.7,   -1.1,   -1.4,   -2.0,   -1.1,   -0.6,   -1.2,   -1.0,   -1.4,   -1.4,   -2.0,   -1.8,   -1.8,   -3.1,   -4.1,   -3.2,   -2.8,   -1.8,   -1.5,   -0.3,    1.1,    1.5,    1.7,    1.2,    0.7,    2.2,    0.2,   -0.1,    0.9,   -0.6,   -2.6,   -3.3,   -3.5,   -2.2,   -1.5,   -1.9,   -1.6,   -1.9,   -1.8,   -2.3,   -2.4,   -1.8,   -0.7,   -0.4,   -0.7,   -0.7,   -0.2,   -0.0,   -0.3,   -1.4,   -1.3,   -0.6,   -0.9,   -1.7,   -2.4,   -2.9,   -3.5,  999.0,  999.0,  999.0,  999.0,  999.0,  999.0,  999.0,  999.0,  999.0,  999.0,  999.0,  999.0,  999.0,  999.0,  999.0,  999.0,  999.0,  999.0,  999.0,  999.0,  999.0,  999.0,  999.0,  999.0,  999.0,  999.0,  999.0,  999.0,  999.0,  999.0,    7.8,    7.5,    7.6,    7.4,    6.6
2011/01/10 16:30,  999.0,    9.1,    9.0,    9.2,    8.2,    7.8,    7.8,    6.8,    6.2,    5.5,    6.2,    6.2,    5.2,    4.8,    4.3,    4.1,    3.4,    3.7,    2.6,    0.9,   -0.5,    0.1,    0.7,   -0.1,    0.8,  999.0,    2.8,  999.0,    1.2,    0.6,    0.3,    0.3,   -0.7,   -0.8,   -0.6,   -0.3,   -0.2,    0.0,   -0.9,   -0.5,   -1.8,   -1.8,   -3.2,   -3.0,   -3.4,  999.0,   -0.0,    0.8,    0.2,   -0.3,  999.0,    0.0,   -1.0,   -1.6,   -1.9,   -1.6,   -1.5,   -1.5,   -1.1,   -2.2,   -2.3,   -1.4,  999.0,   -1.9,   -1.5,  999.0,  999.0,  999.0,  999.0,  999.0,  999.0,  999.0,  999.0,  999.0,  999.0,  999.0,  999.0,  999.0,  999.0,  999.0,  999.0,  999.0,  999.0,  999.0,  999.0,  999.0,  999.0,  999.0,  999.0,  999.0,  999.0,  999.0,  999.0,  999.0,  999.0,  999.0,  999.0,  999.0
2011/01/10 16:40,  999.0,  999.0,    0.4,   -0.5,   -0.3,   -0.5,   -1.1,   -1.1,   -0.8,   -0.5,   -1.0,   -1.2,   -1.4,   -1.3,   -1.5,   -1.8,   -2.6,   -3.2,   -4.0,   -4.1,   -4.1,   -4.2,   -2.8,   -1.9,   -1.7,   -1.3,   -0.6,   -0.4,   -0.5,   -1.2,   -1.8,   -1.7,   -1.6,   -1.3,   -1.2,   -1.2,   -1.1,   -0.6,   -0.8,   -1.7,   -2.1,   -2.5,   -2.8,   -2.7,   -2.1,  999.0,   -1.6,   -1.8,   -2.1,   -1.8,   -1.7,   -1.1,   -1.4,   -1.3,   -1.1,   -1.3,   -1.5,   -1.5,   -1.9,   -2.3,   -2.3,   -2.6,   -2.5,  999.0,  999.0,  999.0,  999.0,  999.0,  999.0,  999.0,  999.0,  999.0,  999.0,  999.0,  999.0,  999.0,  999.0,  999.0,  999.0,  999.0,  999.0,  999.0,  999.0,  999.0,  999.0,  999.0,  999.0,  999.0,  999.0,  999.0,  999.0,  999.0,  999.0,  999.0,  999.0,  999.0,  999.0,  999.0
2011/01/10 16:50,    0.0,    0.0,    0.8,    0.9,    1.1,    0.3,   -0.6,   -0.7,   -1.0,   -1.6,   -2.1,   -2.3,   -2.1,   -2.1,   -2.7,   -4.1,   -4.3,   -4.0,   -4.4,   -4.4,   -4.3,   -3.9,   -3.5,   -3.0,   -2.5,   -2.2,   -1.8,   -1.1,   -1.2,   -1.4,   -1.2,   -0.7,   -0.1,   -0.4,   -0.4,   -0.9,   -0.6,   -0.1,   -0.1,   -0.8,   -1.2,   -1.5,   -1.0,   -0.5,   -0.1,   -0.3,   -0.4,   -1.0,  999.0,  999.0,   -0.5,   -1.0,   -1.2,   -1.1,   -1.1,   -1.5,   -1.7,   -1.7,   -1.8,   -1.8,   -2.0,   -1.7,  999.0,  999.0,  999.0,  999.0,  999.0,  999.0,  999.0,  999.0,  999.0,  999.0,  999.0,  999.0,  999.0,  999.0,  999.0,  999.0,  999.0,  999.0,  999.0,  999.0,  999.0,  999.0,  999.0,  999.0,  999.0,  999.0,  999.0,  999.0,  999.0,  999.0,  999.0,  999.0,  999.0,  999.0,  999.0,  999.0
2011/01/10 17:00,    0.2,    0.4,    1.4,    1.2,    0.8,    0.8,    0.6,   -0.0,   -0.4,   -0.8,   -1.1,   -1.7,   -1.8,   -2.6,   -2.7,   -2.9,   -3.0,   -3.3,   -4.1,   -4.1,   -4.2,   -3.8,   -3.9,   -3.8,   -3.1,   -2.7,   -2.6,   -2.4,   -2.1,   -1.6,   -1.0,   -0.5,   -0.4,   -0.5,   -0.9,   -1.2,   -0.8,   -0.1,   -0.2,   -0.4,   -0.7,   -0.8,   -0.6,   -0.2,    0.2,   -0.1,    0.2,  999.0,  999.0,  999.0,   -0.2,    0.1,   -1.0,   -1.7,   -1.6,   -1.8,   -1.6,   -1.6,   -1.2,   -1.5,   -1.8,   -1.5,  999.0,  999.0,  999.0,  999.0,  999.0,  999.0,  999.0,  999.0,  999.0,  999.0,  999.0,  999.0,  999.0,  999.0,  999.0,  999.0,  999.0,  999.0,  999.0,  999.0,  999.0,  999.0,  999.0,  999.0,  999.0,  999.0,  999.0,  999.0,  999.0,  999.0,  999.0,  999.0,  999.0,  999.0,  999.0,  999.0
2011/01/10 17:10,    0.0,    0.4,    0.7,   -0.9,   -1.6,   -2.1,   -2.2,   -2.0,   -2.1,   -2.8,   -2.4,   -1.5,   -0.5,   -1.4,   -1.4,   -1.1,   -1.9,   -2.2,   -2.6,   -3.1,   -3.9,   -4.1,   -4.1,   -3.3,   -3.1,   -3.0,   -2.6,   -2.4,   -2.1,   -2.0,   -1.7,   -1.6,   -1.4,   -1.3,   -1.4,   -1.4,   -0.6,    0.2,   -0.1,   -0.3,   -0.6,  999.0,   -1.4,   -0.2,   -0.7,   -0.2,    0.5,  999.0,  999.0,    0.5,    0.6,    0.4,   -0.9,   -0.7,   -1.3,   -1.6,   -2.3,   -1.5,   -1.6,  999.0,  999.0,  999.0,  999.0,  999.0,  999.0,  999.0,  999.0,  999.0,  999.0,  999.0,  999.0,  999.0,  999.0,  999.0,  999.0,  999.0,  999.0,  999.0,  999.0,  999.0,  999.0,  999.0,  999.0,  999.0,  999.0,  999.0,  999.0,  999.0,  999.0,  999.0,  999.0,  999.0,  999.0,  999.0,  999.0,  999.0,  999.0,  999.0
2011/01/10 17:20,  999.0,    0.3,   -1.1,   -1.9,   -2.9,   -3.5,   -3.2,   -3.4,   -3.4,   -3.3,   -3.2,   -2.4,   -1.6,   -0.8,   -0.4,   -0.3,   -0.2,   -1.0,   -2.2,   -1.3,   -1.5,  999.0,   -4.1,   -4.8,   -5.2,   -4.7,   -3.8,   -2.9,   -2.0,   -1.6,   -1.4,   -1.5,   -1.6,   -2.1,   -2.3,   -1.6,   -1.1,   -0.9,   -1.1,   -1.4,  999.0,   -1.6,   -1.3,   -0.8,   -0.6,   -0.3,    0.2,  999.0,    0.6,    0.1,    0.3,    0.3,  999.0,   -0.2,   -0.6,   -0.9,   -0.6,    0.1,    0.6,    0.5,    0.4,  999.0,  999.0,  999.0,  999.0,   -0.0,  999.0,  999.0,  999.0,  999.0,  999.0,  999.0,  999.0,  999.0,  999.0,  999.0,  999.0,  999.0,  999.0,  999.0,  999.0,  999.0,  999.0,  999.0,  999.0,  999.0,  999.0,  999.0,  999.0,  999.0,  999.0,    5.2,    5.5,    5.7,    5.8,    5.6,    5.7,  999.0
2011/01/10 17:30,    0.4,   -0.4,   -1.2,   -2.1,   -3.1,   -3.5,   -3.6,   -4.2,   -4.5,   -3.7,   -4.0,   -4.2,   -3.4,   -2.4,   -2.0,   -1.5,   -1.2,   -1.1,   -1.4,   -2.0,   -2.5,   -2.9,   -3.8,   -4.6,   -4.9,   -4.8,   -4.4,   -3.5,   -2.8,   -2.8,   -2.3,   -2.1,   -2.3,   -2.3,   -1.9,   -1.2,   -1.2,   -1.6,   -1.2,   -1.1,  999.0,   -1.8,   -2.0,   -1.1,   -1.1,   -0.9,   -0.7,   -0.8,   -0.2,    0.2,  999.0,    0.6,    0.3,    0.2,    0.3,   -0.1,    0.2,   -0.1,   -0.0,   -0.0,   -0.0,  999.0,  999.0,  999.0,  999.0,    0.3,  999.0,  999.0,  999.0,  999.0,  999.0,  999.0,  999.0,  999.0,  999.0,  999.0,  999.0,  999.0,  999.0,  999.0,    1.1,    1.4,    0.7,    0.7,    1.0,    1.9,    3.3,    3.4,    4.1,    4.5,    4.9,    5.0,    5.1,    5.0,    5.2,    5.4,    5.7,    5.8
2011/01/10 17:40,  999.0,  999.0,   -1.1,   -1.9,   -2.9,   -2.9,   -3.0,   -3.8,   -3.8,   -4.2,   -4.5,  999.0,   -3.2,   -2.6,   -1.7,   -1.7,   -1.5,   -1.3,   -1.4,   -2.0,   -2.2,   -2.6,   -3.0,   -3.6,   -3.5,   -3.7,   -3.9,   -3.7,   -3.1,   -2.6,   -2.0,   -2.0,   -2.2,   -2.1,   -1.7,   -0.8,   -1.0,   -1.3,   -0.7,   -0.3,   -0.7,   -0.8,   -1.1,    0.2,    0.1,    0.6,   -0.5,   -0.2,   -0.4,   -0.0,   -0.0,  999.0,  999.0,   -0.3,   -0.2,   -0.2,   -0.4,   -0.5,   -0.8,   -0.9,   -0.2,  999.0,  999.0,  999.0,  999.0,  999.0,  999.0,  999.0,  999.0,  999.0,  999.0,  999.0,  999.0,   -1.3,   -0.8,   -0.1,    0.5,    1.0,    1.5,    1.9,    1.9,    1.6,    1.7,    1.9,    2.2,    3.3,    4.7,    5.5,    5.8,    5.6,    5.4,    5.2,    5.2,    6.3,    6.4,    6.3,    6.1,    6.1
2011/01/10 17:50,    1.1,  999.0,   -0.7,   -1.2,   -2.1,   -3.6,   -3.6,   -3.5,   -3.6,   -3.6,   -3.9,   -4.7,   -4.0,   -3.1,   -2.2,   -1.7,   -1.7,   -1.5,   -1.8,   -2.3,   -2.7,   -3.0,   -3.8,   -4.3,   -4.0,   -4.2,   -3.9,   -3.9,   -3.5,   -3.1,   -3.0,   -3.1,   -3.5,   -3.2,   -2.4,   -1.6,   -1.3,   -1.1,  999.0,  999.0,   -0.8,   -0.9,   -0.2,    0.5,    1.0,    0.4,   -0.1,   -0.6,   -0.1,    0.4,    0.5,    0.3,  999.0,    0.3,    0.5,    0.5,    0.8,    0.7,  999.0,  999.0,  999.0,  999.0,  999.0,    0.8,  999.0,  999.0,  999.0,  999.0,  999.0,    0.9,    0.3,   -0.2,   -0.5,   -0.5,   -0.3,    0.4,    1.4,    2.4,    3.4,    3.6,    3.3,    3.1,    3.3,    3.4,    3.8,    4.6,  999.0,  999.0,    5.6,    4.4,    4.6,    4.2,  999.0,    5.1,    5.5,    5.1,  999.0,  999.0
2011/01/10 18:00,  999.0,  999.0,  999.0,  999.0,   -0.6,    0.3,   -1.6,   -3.6,   -3.8,   -4.0,   -3.7,   -4.3,   -3.2,   -2.8,   -3.0,   -2.7,   -3.0,   -3.4,   -3.6,   -3.6,   -4.0,   -4.3,   -4.6,   -4.4,   -3.7,   -3.5,   -4.9,   -4.3,   -3.9,   -4.0,   -4.6,   -4.6,   -4.7,   -3.7,   -3.3,   -2.7,   -2.2,  999.0,  999.0,   -0.6,   -0.3,    0.6,    1.0,    1.2,    0.7,    0.6,    0.4,   -0.6,    0.5,    0.9,    0.8,    1.2,    1.5,    1.5,    1.8,    2.2,    2.6,    2.5,    2.1,  999.0,  999.0,  999.0,  999.0,  999.0,  999.0,   -0.3,   -0.1,    0.1,    0.5,    0.7,    0.9,    0.7,    0.8,    0.8,    0.3,    0.1,    0.4,    1.2,    2.1,    2.4,    2.2,    2.0,    2.0,    1.8,    2.3,    3.1,    4.2,    4.5,    4.5,    3.9,  999.0,  999.0,  999.0,  999.0,  999.0,  999.0,  999.0,  999.0
2011/01/10 18:10,  999.0,  999.0,  999.0,  999.0,   -0.2,   -0.8,   -1.9,   -3.6,   -4.2,   -3.5,   -2.6,   -2.6,   -3.0,  999.0,   -3.0,   -1.7,   -0.9,   -2.2,   -1.9,   -2.4,   -4.0,   -3.9,   -4.2,   -4.9,   -4.6,   -4.7,   -4.6,   -4.4,   -3.9,   -4.1,   -4.7,   -4.9,   -4.6,   -4.0,   -3.5,   -3.5,  999.0,  999.0,   -2.4,   -2.1,   -1.0,   -1.1,   -0.2,   -0.8,   -0.4,   -1.1,   -1.3,   -0.4,   -0.7,  999.0,  999.0,    1.0,    0.8,    1.1,    1.7,    2.3,    2.4,    2.1,    3.5,  999.0,  999.0,  999.0,  999.0,  999.0,    0.6,    1.0,    1.2,    1.6,    1.6,    1.8,    1.9,    1.8,    1.2,    0.0,   -0.7,   -0.7,    0.1,    0.8,    1.5,    1.7,    1.6,    1.7,    1.4,    1.6,    1.3,    1.5,    2.8,  999.0,  999.0,  999.0,  999.0,  999.0,  999.0,  999.0,  999.0,  999.0,  999.0,  999.0
2011/01/10 18:20,  999.0,  999.0,  999.0,  999.0,  999.0,  999.0,  999.0,  999.0,   -3.2,   -4.2,   -4.6,   -4.7,   -4.2,   -4.1,   -4.4,   -4.5,   -4.3,   -3.4,   -4.2,   -3.7,   -4.6,   -5.6,   -6.2,   -6.2,   -5.8,   -5.5,   -4.9,   -5.9,   -6.2,   -5.2,   -6.1,   -6.2,   -5.8,   -4.9,   -4.7,   -3.8,   -3.8,   -4.1,   -4.2,   -3.5,   -2.9,   -2.5,   -2.2,   -2.2,   -2.6,   -1.8,   -1.5,   -1.3,  999.0,  999.0,   -0.8,   -0.5,   -0.4,   -0.4,    0.4,    0.4,   -2.1,    1.4,    0.6,    1.9,    2.5,    1.3,    2.9,    3.4,    3.1,    2.5,    2.1,    2.5,    2.4,    2.6,    2.7,    2.8,    2.2,    0.8,    0.1,    0.1,    0.5,    1.0,    1.2,  999.0,  999.0,  999.0,  999.0,  999.0,  999.0,  999.0,  999.0,  999.0,  999.0,  999.0,  999.0,  999.0,  999.0,  999.0,  999.0,  999.0,  999.0,  999.0
2011/01/10 18:30,   -0.5,    0.2,   -0.2,   -4.4,   -3.1,   -6.1,   -3.9,   -3.5,   -4.6,   -6.5,   -2.9,   -4.4,   -5.3,   -2.5,    1.7,   -0.5,   -1.6,   -0.2,   -0.1,    0.9,    0.5,    0.4,   -0.6,   -1.7,   -1.3,   -4.0,   -5.6,   -2.3,   -5.5,   -7.8,   -7.4,   -7.3,   -6.8,   -6.7,   -6.0,   -4.5,   -2.7,  999.0,  999.0,   -1.1,    1.5,    2.4,    2.5,    4.0,  999.0,    4.2,    5.7,    3.3,  999.0,  999.0,  999.0,  999.0,  999.0,    1.4,  999.0,  999.0,  999.0,  999.0,    2.1,    0.9,    0.9,    1.6,  999.0,    0.6,   -0.3,  999.0,  999.0,  999.0,    3.5,    4.4,    4.5,    4.8,    3.9,    3.2,    3.0,    1.9,    2.5,    3.1,    3.8,  999.0,    2.9,    2.3,  999.0,  999.0,  999.0,  999.0,  999.0,  999.0,  999.0,  999.0,  999.0,  999.0,  999.0,  999.0,  999.0,  999.0,  999.0,  999.0
2011/01/10 18:40,  999.0,    2.4,   -3.3,   -3.4,   -5.4,  999.0,    4.2,    1.4,    4.1,  999.0,    3.2,    2.3,    2.3,   -4.3,    7.1,  999.0,  999.0,  999.0,   -2.6,   15.5,  999.0,   -0.7,   -6.1,   -2.1,   -4.4,   -5.3,   -5.2,  999.0,  999.0,   -1.9,   -2.0,   -2.0,   -2.8,   -4.0,   -5.7,   -6.7,   -2.7,   -0.5,   -4.8,   -4.8,   -5.5,    0.8,    0.4,   -0.4,  999.0,  999.0,    1.5,    2.0,    0.6,  999.0,  999.0,  999.0,    3.9,    0.9,  999.0,    2.2,    3.7,    4.2,    2.0,    2.0,    3.6,    3.8,    4.7,    3.7,    5.1,    4.0,    3.3,    3.0,    3.1,    3.1,    2.8,    4.1,    3.8,    3.8,    3.1,    3.5,    2.9,    3.5,    2.3,    2.6,  999.0,  999.0,  999.0,  999.0,  999.0,  999.0,  999.0,  999.0,  999.0,  999.0,  999.0,  999.0,  999.0,  999.0,  999.0,  999.0,  999.0,  999.0
2011/01/10 18:50,    3.7,   -0.9,  999.0,  999.0,  999.0,   18.2,   17.4,   15.9,   17.3,    4.3,    7.7,   10.6,   10.7,   12.5,    7.9,   13.4,   16.6,   18.6,   18.6,   17.3,   17.6,   13.4,   16.1,   18.1,   15.7,   13.3,    4.5,    4.7,    5.8,    3.1,    3.7,    1.8,   -5.8,   -6.7,   -6.4,   -6.0,   -6.3,   -7.4,   -7.5,   -6.5,   -5.6,  999.0,   -3.7,   -4.0,   -5.1,   -3.2,   -4.1,   -3.4,   -1.7,   -0.5,   -1.3,   -1.9,   -1.4,   -6.2,   -5.4,   -0.7,   -1.5,    1.4,   -1.5,   -1.5,    2.2,  999.0,    4.3,    3.7,    2.5,  999.0,  999.0,   -2.3,  999.0,   -2.9,  999.0,  999.0,  999.0,  999.0,  999.0,  999.0,  999.0,  999.0,  999.0,  999.0,  999.0,  999.0,  999.0,  999.0,  999.0,  999.0,  999.0,  999.0,  999.0,  999.0,  999.0,  999.0,  999.0,  999.0,  999.0,  999.0,  999.0,  999.0
2011/01/10 19:00,  999.0,   -1.5,   -3.0,  999.0,  999.0,   29.4,   29.3,  999.0,   29.3,  999.0,  999.0,  999.0,   11.5,   16.8,   15.7,   19.4,   16.1,   16.5,   17.6,  999.0,   21.7,   -2.7,  999.0,   18.5,   20.5,   19.3,   25.9,   24.5,   19.4,   25.6,   25.9,   23.5,   23.3,   24.4,   22.4,   17.9,    5.6,   -0.8,  -11.0,   -4.2,   -3.6,   -3.4,   -9.9,   -9.6,  999.0,   -6.3,   -9.5,   -7.7,   -8.0,  999.0,  999.0,  999.0,   -3.8,   -5.1,   -4.4,   -3.8,   -2.8,   -2.2,   -1.0,    0.4,   -2.9,   -5.0,    1.0,    1.5,    1.0,   -1.2,    0.0,   -1.2,   -3.2,   -6.1,  999.0,    2.2,  999.0,  999.0,    2.7,  999.0,  999.0,  999.0,  999.0,  999.0,  999.0,  999.0,  999.0,  999.0,  999.0,  999.0,  999.0,  999.0,  999.0,  999.0,  999.0,  999.0,  999.0,  999.0,  999.0,  999.0,  999.0,  999.0
2011/01/10 19:10,    3.2,    2.4,   -0.1,   -1.2,   -1.4,   -1.7,   -3.0,   -4.1,   -4.5,   -4.0,   -4.3,   -4.1,   -5.0,   -5.4,   -6.1,   -6.6,    6.6,    2.8,    0.2,    7.5,   10.5,   10.6,    9.8,    4.2,   13.5,    9.7,   15.3,   27.7,   27.2,   28.2,   27.7,   24.8,   17.0,   16.2,   15.3,   14.0,   10.4,   10.6,   10.5,   19.9,   13.6,   10.6,   17.0,   -9.0,   -7.2,   -5.0,   -6.1,   -5.8,   -5.6,   -3.8,   -5.8,   -5.1,   -5.0,   -4.4,   -3.3,   -3.6,   -1.2,   -0.4,    0.5,    2.4,    3.6,    2.4,    1.9,    1.6,    2.4,    3.2,    3.6,    2.0,  999.0,  999.0,    1.5,    1.1,   -0.1,    0.9,  999.0,  999.0,  999.0,  999.0,  999.0,  999.0,  999.0,  999.0,  999.0,  999.0,  999.0,  999.0,  999.0,  999.0,  999.0,  999.0,  999.0,  999.0,  999.0,  999.0,  999.0,  999.0,  999.0,  999.0
2011/01/10 19:20,    0.1,   -1.2,   -0.4,   -1.2,   -2.7,   -3.6,   -4.1,   -4.2,   -4.3,   -4.2,   -3.4,   -3.5,   -3.8,   -5.0,   -5.0,   -3.8,   -3.5,   -2.9,   -4.0,   -4.7,   -4.7,   -5.6,   -6.1,   -6.8,   -7.0,   -7.1,   -7.2,   -7.3,   -8.2,   -8.3,   -8.2,   -8.7,   -7.3,   -6.7,   -6.9,   -7.8,   -7.7,   -8.0,   -8.8,   -9.4,  -10.1,   -9.1,   -7.7,   -6.3,   -6.3,   -5.1,   -5.9,   -5.7,   -6.3,   -4.3,   -4.2,   -2.5,   -1.0,   -0.0,   -0.3,    0.4,    0.4,    0.8,    1.3,    1.9,    2.5,    3.2,    4.1,    3.7,    4.0,  999.0,    6.7,    7.0,    5.1,    5.1,    5.0,    5.0,    4.7,    4.9,  999.0,    3.3,    4.0,    3.8,    3.1,    3.8,    0.8,    2.2,  999.0,  999.0,  999.0,  999.0,  999.0,  999.0,  999.0,  999.0,  999.0,  999.0,  999.0,  999.0,  999.0,  999.0,  999.0,  999.0
2011/01/10 19:30,    3.2,    1.0,   -0.7,   -1.8,   -2.9,   -3.8,   -3.9,   -3.6,   -4.5,   -3.5,   -3.5,   -3.2,   -3.4,   -4.3,   -4.6,   -3.9,   -4.2,   -3.9,   -3.9,   -3.8,   -3.5,   -3.5,   -3.1,   -3.2,   -3.6,   -4.5,   -4.6,   -5.1,   -5.4,   -6.0,   -5.5,   -6.1,   -6.8,   -6.3,   -5.9,   -6.5,   -7.2,   -7.6,   -8.5,   -9.1,   -9.1,   -8.9,   -8.6,   -9.1,   -9.7,  -10.0,  -10.0,   -8.9,   -8.3,   -5.8,   -4.7,   -3.0,   -2.1,   -1.1,    0.7,    0.4,    0.8,    1.9,    2.6,    3.0,    2.9,    2.8,    3.0,    3.7,    4.1,    4.3,    4.9,    5.0,    5.6,    5.3,    5.7,    4.9,    4.8,    4.8,    3.9,    3.7,    3.4,    3.7,    2.3,    1.8,    2.4,    2.4,    1.9,    1.7,    1.6,    1.9,    2.1,    1.9,    2.7,    1.7,    0.5,    0.0,    1.6,    1.7,    2.9,    3.2,    4.1,    4.3
2011/01/10 19:40,  999.0,   -1.4,   -4.0,   -4.4,   -5.1,   -4.9,   -4.6,   -4.8,    2.3,    1.8,    1.2,    1.1,    1.6,    2.1,   -5.4,  999.0,  999.0,  999.0,  999.0,  999.0,  999.0,  999.0,   -2.2,   -1.1,   -1.1,    0.7,    0.8,   -0.5,   -1.1,   -3.9,  999.0,   -3.5,   -6.0,  999.0,   -9.3,  999.0,  999.0,  999.0,   -5.0,  999.0,   -4.7,   -4.0,   -3.7,   -4.2,   -5.2,   -8.2,   -7.8,  999.0,   -7.0,   -6.4,   -6.2,   -5.0,   -3.8,   -2.9,   -2.0,   -1.2,    2.1,    2.3,    3.5,    3.8,    4.7,    4.0,    4.0,    4.5,  999.0,    8.3,    8.1,    6.7,    2.9,    3.4,    3.2,    5.1,    6.4,    4.6,    2.2,    1.1,    0.5,   -0.5,   -0.5,   -2.1,    0.0,   -1.2,   -1.4,   -1.9,   -0.3,   -0.0,   -0.1,   -1.3,   -0.1,    0.8,   -0.0,    0.8,    1.3,    1.6,    1.9,    3.0,    3.1,    4.1
2011/01/10 19:50,  999.0,   -1.8,   -2.6,   -3.3,   -4.3,   -5.0,   -5.9,   -6.3,   -6.7,   -6.3,   -7.0,   -5.3,   -5.3,   -5.5,   -5.5,   -5.2,   -4.7,   -4.8,   -3.0,   -3.2,   -4.6,   -4.8,   -2.9,   -4.0,   -3.5,   -4.4,   -3.9,   -3.7,   -4.1,   -4.6,   -5.4,   -6.4,   -7.5,   -6.6,   -9.0,  -10.0,   -9.6,   -8.6,   -8.2,   -8.3,   -9.0,   -9.7,   -9.0,  999.0,  999.0,   -9.0,   -5.1,   -9.2,   -8.0,  999.0,   -3.3,   -3.7,   -4.5,   -2.3,   -0.8,    0.6,    1.8,    2.9,    3.3,    4.7,    5.5,    6.5,    7.7,    8.4,    7.5,    8.5,    6.7,    5.5,    4.8,    4.4,    4.3,    3.8,    2.9,    2.3,    2.1,    1.6,    1.6,    1.3,    1.6,    1.2,    0.8,    1.1,    1.2,    1.0,    0.8,    0.9,    1.3,    1.0,    0.2,    0.1,  999.0,  999.0,  999.0,  999.0,  999.0,  999.0,  999.0,  999.0
2011/01/10 20:00,  999.0,   -0.3,   -1.4,   -2.0,    1.7,    0.8,   -0.6,    2.3,    2.4,    2.5,   -0.4,   -0.8,    2.4,    2.2,    2.8,    3.6,    0.0,   -4.9,   -5.8,   -5.5,   -4.1,   -4.5,   -5.7,   -6.5,   -7.2,   -8.3,   -7.1,   -8.4,   -8.4,   -5.9,  999.0,  999.0,   -5.1,   -5.9,   -3.3,  999.0,   -2.5,   -2.0,   -2.5,    1.1,   -2.8,   -4.0,   -6.2,   -5.5,   -4.6,   -3.6,   -4.2,   -2.7,   -4.0,   -3.2,   -3.9,   -3.0,   -2.6,   -2.9,   -4.8,   -3.7,    1.1,    0.5,    0.4,    0.7,    2.6,    3.4,    2.9,    3.7,    4.0,    4.1,    4.7,    4.9,    4.4,    4.9,    4.7,    4.4,    3.6,    2.6,    2.5,    2.6,    3.6,    4.0,  999.0,  999.0,  999.0,  999.0,  999.0,  999.0,  999.0,  999.0,  999.0,  999.0,  999.0,  999.0,  999.0,  999.0,  999.0,  999.0,  999.0,  999.0,  999.0,  999.0
2011/01/10 20:10,  999.0,   -1.5,   -2.1,   -2.9,   -5.8,   -5.1,   -6.5,   -3.9,   -3.5,   -4.1,   -3.0,   -3.5,   -3.1,   -3.1,   -2.3,   -2.5,   -3.3,   -3.3,   -1.6,   -1.4,   -1.1,   -1.0,   -1.3,   -0.8,   -0.9,   -1.6,   -1.0,   -1.2,   -2.3,   -1.8,   -2.0,   -2.1,   -2.0,   -2.7,  999.0,  999.0,  999.0,   28.8,   28.7,   28.8,  999.0,  999.0,  999.0,  999.0,   -5.3,   -5.0,   -4.0,   -2.8,   -1.0,   -0.5,   -0.0,   -0.1,   -0.0,    0.2,    1.5,    2.4,    3.0,    3.5,    4.0,    4.7,    4.9,    4.8,    4.9,    4.5,    4.5,    4.5,    4.0,    3.7,    3.3,    2.3,    1.2,    0.2,   -0.8,   -1.0,   -0.9,   -0.3,   -0.0,    0.7,    1.2,    1.6,    1.7,    1.9,    1.5,    1.4,    0.4,    0.4,  999.0,  999.0,  999.0,  999.0,  999.0,  999.0,  999.0,  999.0,  999.0,  999.0,  999.0,  999.0
2011/01/10 20:20,  999.0,  999.0,  999.0,  999.0,  999.0,   -5.8,   -6.6,   -5.1,   -4.4,   -3.9,    0.5,    1.9,    4.1,    3.4,   -1.6,    2.0,    3.7,    2.5,    2.6,    3.0,   -0.3,    0.6,    0.8,    0.5,    0.0,   -0.9,   -1.0,   -1.5,   -0.9,   -0.7,   -3.1,   -2.9,   -3.3,   -3.3,   -4.4,   -3.4,   -4.6,   -5.0,   -4.9,   -4.7,   -2.6,   -3.6,  999.0,  999.0,  999.0,  999.0,  999.0,   -1.9,   -0.8,    0.2,    1.4,    1.9,    2.7,    2.8,    3.0,    3.2,    3.2,    2.7,    2.9,    3.6,    4.1,    4.5,    4.1,    3.8,    3.3,    3.6,    3.4,    2.7,    1.4,    0.2,   -1.0,   -1.2,   -1.9,   -1.4,   -0.1,    0.9,    1.4,    1.5,    1.6,    2.0,    2.4,    2.2,    2.4,    1.9,    2.0,    1.5,  999.0,  999.0,  999.0,  999.0,  999.0,  999.0,  999.0,  999.0,  999.0,  999.0,  999.0,  999.0
2011/01/10 20:30,  999.0,  999.0,  999.0,  999.0,  999.0,  999.0,  999.0,    8.5,    0.1,   -1.5,   -1.5,    1.1,   -1.3,   -0.2,   -3.0,   -2.8,   -0.6,   -1.5,  999.0,  999.0,  999.0,  999.0,  999.0,  999.0,  999.0,  999.0,  999.0,  999.0,  999.0,  999.0,  999.0,  999.0,  999.0,  999.0,  999.0,  999.0,  999.0,   -2.8,   -2.5,  999.0,  999.0,  999.0,  999.0,  999.0,  999.0,  999.0,  999.0,  999.0,  999.0,  999.0,  999.0,   -2.7,   -2.0,   -0.8,   -0.3,   -0.0,    0.8,  999.0,  999.0,  999.0,  999.0,  999.0,    2.0,    2.2,    1.7,    0.7,   -0.6,  999.0,  999.0,   -2.0,   -1.7,   -1.9,  999.0,  999.0,  999.0,  999.0,  999.0,  999.0,  999.0,  999.0,    2.0,  999.0,  999.0,  999.0,  999.0,  999.0,  999.0,  999.0,  999.0,  999.0,  999.0,  999.0,  999.0,  999.0,  999.0,  999.0,  999.0,  999.0
2011/01/10 20:40,  999.0,  999.0,  999.0,  999.0,    2.6,  999.0,  999.0,    4.6,    2.1,    1.2,    3.4,    1.5,    1.1,    1.5,    1.2,    0.1,    0.9,    1.4,    1.2,    1.8,    5.2,    5.1,  999.0,  999.0,    1.9,  999.0,  999.0,   -2.6,   -2.4,   -1.9,   -1.0,   -2.9,   -3.9,   -4.8,   -5.1,   -5.4,   -5.7,   -5.7,   -5.4,   -3.8,   -4.1,   -3.1,   -3.5,   -4.8,   -5.2,   -4.8,   -4.1,   -2.5,   -2.1,   -2.3,   -2.4,   -2.4,   -2.4,   -2.2,   -1.5,   -0.5,    0.6,    1.1,    1.6,    2.3,    2.0,    2.2,    2.5,    2.2,    1.2,   -0.2,   -1.8,   -2.4,   -2.8,  999.0,  999.0,  999.0,  999.0,  999.0,  999.0,  999.0,  999.0,    0.3,    0.8,    1.4,    1.7,    1.7,  999.0,  999.0,  999.0,  999.0,  999.0,  999.0,  999.0,  999.0,  999.0,  999.0,  999.0,  999.0,  999.0,  999.0,  999.0,  999.0
2011/01/10 20:50,  999.0,  999.0,  999.0,  999.0,   -3.1,   -1.9,   -3.7,   -0.7,    0.7,    4.0,    0.2,   -0.6,   -0.5,    0.7,    0.4,   -0.9,   -2.7,   -3.3,   -5.8,   -5.6,   -5.4,   -4.7,   -4.9,   -5.5,   -6.7,   -6.3,   -3.8,   -3.5,   -3.3,   -3.2,   -3.5,   -4.9,   -5.7,   -4.5,   -5.1,   -6.0,   -6.3,   -7.3,   -7.5,   -7.0,   -6.8,   -6.1,   -5.4,   -5.6,  999.0,   -5.0,   -3.8,   -3.2,   -3.0,   -3.1,   -3.3,   -3.1,   -2.4,   -1.2,   -0.4,    0.3,    0.9,    1.0,    1.1,    1.0,    1.8,    1.3,  999.0,  999.0,  999.0,  999.0,  999.0,  999.0,  999.0,  999.0,  999.0,  999.0,  999.0,  999.0,  999.0,  999.0,  999.0,  999.0,  999.0,  999.0,  999.0,  999.0,  999.0,  999.0,  999.0,  999.0,  999.0,  999.0,  999.0,  999.0,  999.0,  999.0,  999.0,  999.0,  999.0,  999.0,  999.0,  999.0
2011/01/10 21:00,   -2.0,   -2.7,  999.0,  999.0,  999.0,  999.0,   -6.5,   -5.6,   -4.7,   -3.8,   -3.4,   -2.8,   -3.1,   -2.9,   -3.1,   -3.4,   -3.2,   -3.0,   -2.5,   -4.3,   -2.8,   -2.5,   -2.2,   -4.9,  999.0,  999.0,  999.0,   -2.2,   -1.8,   -1.2,   -1.6,   -3.0,   -3.6,   -3.8,   -4.1,   -4.6,   -5.0,   -5.2,   -5.9,   -3.6,   -3.2,   -2.8,   -2.9,   -3.0,   -2.4,   -1.3,   -0.4,   -0.6,   -0.9,   -1.2,   -1.3,   -1.1,   -0.5,    0.7,    2.5,    3.2,    3.5,    3.7,    2.1,    2.6,    3.3,  999.0,  999.0,  999.0,  999.0,  999.0,  999.0,  999.0,  999.0,  999.0,  999.0,  999.0,  999.0,  999.0,  999.0,  999.0,  999.0,  999.0,  999.0,  999.0,  999.0,  999.0,  999.0,  999.0,  999.0,  999.0,  999.0,  999.0,  999.0,  999.0,  999.0,  999.0,  999.0,  999.0,  999.0,  999.0,  999.0,  999.0
2011/01/10 21:10,  999.0,   -4.2,   -5.9,   -6.7,   -4.1,   -2.6,  999.0,   -2.1,    0.7,   -0.5,   -0.1,   -1.2,   -0.6,   -2.7,   -2.2,   -2.2,   -2.8,   -2.6,   -2.4,   -2.2,   -2.0,   -2.8,   -2.4,   -1.9,   -3.5,   -3.9,   -3.5,   -3.5,   -3.4,   -3.2,   -3.7,   -4.7,  999.0,  999.0,  999.0,  999.0,  999.0,  999.0,  999.0,  999.0,  999.0,  999.0,  999.0,  999.0,   -1.0,  999.0,  999.0,   -1.6,   -1.3,   -0.7,   -0.4,    0.1,  999.0,  999.0,    3.8,    4.1,    4.7,  999.0,  999.0,  999.0,  999.0,  999.0,  999.0,  999.0,  999.0,  999.0,  999.0,  999.0,  999.0,  999.0,  999.0,  999.0,  999.0,  999.0,  999.0,  999.0,  999.0,  999.0,  999.0,  999.0,  999.0,  999.0,  999.0,  999.0,  999.0,  999.0,  999.0,  999.0,  999.0,  999.0,  999.0,  999.0,  999.0,  999.0,  999.0,  999.0,  999.0,  999.0
2011/01/10 21:20,  999.0,  999.0,   -5.9,   -6.7,   -6.8,   -6.6,   -5.7,   -5.0,  999.0,  999.0,   -3.5,   -3.7,   -4.0,   -3.9,   -3.7,   -4.0,   -3.3,  999.0,  999.0,   -3.8,   -3.7,   -3.8,   -3.8,   -3.4,   -3.5,   -4.1,   -3.9,   -3.9,   -3.5,   -3.9,   -4.5,   -4.9,  999.0,  999.0,   -6.4,   -7.6,   -8.2,  999.0,  999.0,  999.0,  999.0,  999.0,  999.0,  999.0,    1.0,  999.0,  999.0,   -1.3,   -1.2,   -1.1,   -0.9,   -0.9,    0.7,    2.0,    2.7,  999.0,  999.0,  999.0,  999.0,  999.0,  999.0,  999.0,  999.0,   -0.2,   -0.4,   -0.7,   -1.0,   -1.1,   -1.1,   -1.5,   -1.8,  999.0,  999.0,  999.0,  999.0,  999.0,  999.0,  999.0,  999.0,  999.0,  999.0,  999.0,  999.0,  999.0,  999.0,  999.0,  999.0,  999.0,  999.0,  999.0,  999.0,  999.0,  999.0,  999.0,  999.0,  999.0,  999.0,  999.0
2011/01/10 21:30,  999.0,  999.0,   -3.0,   -5.6,   -6.0,   -5.9,  999.0,   -4.9,  999.0,   -3.8,   -3.9,   -4.0,   -3.9,   -3.5,   -3.6,   -3.5,   -4.2,   -4.2,   -4.1,   -3.6,   -2.9,   -3.2,   -2.8,   -3.2,   -3.8,   -4.2,   -4.0,   -4.0,   -4.0,   -4.2,   -4.9,   -4.7,   -4.6,   -5.5,   -6.4,   -7.4,  999.0,  999.0,  999.0,  999.0,  999.0,  999.0,  999.0,  999.0,  999.0,  999.0,  999.0,  999.0,   -2.6,   -2.6,   -1.7,   -0.8,    0.6,    2.0,    1.5,    2.4,    3.3,    3.4,    2.7,    1.8,    1.4,    1.3,  999.0,   -1.0,   -1.5,   -1.0,   -0.9,   -0.5,   -0.3,   -0.3,   -0.6,   -0.7,   -0.5,    0.8,    1.9,    2.8,    2.6,    2.4,  999.0,  999.0,  999.0,  999.0,  999.0,  999.0,  999.0,  999.0,  999.0,  999.0,  999.0,  999.0,  999.0,  999.0,  999.0,  999.0,  999.0,  999.0,  999.0,  999.0
2011/01/10 21:40,  999.0,  999.0,  999.0,  999.0,   -5.4,  999.0,  999.0,  999.0,   -4.2,  999.0,  999.0,   -2.0,   -2.9,   -2.8,   -3.0,   -3.4,   -3.5,   -4.1,   -3.3,   -2.5,   -2.0,  999.0,   -2.1,   -2.9,   -3.9,   -4.6,   -3.8,   -3.9,   -4.2,   -4.6,   -5.4,   -5.5,   -5.9,   -6.7,   -7.2,   -7.2,   -5.6,  999.0,  999.0,  999.0,  999.0,  999.0,  999.0,   -3.0,   -3.0,   -1.7,   -2.6,   -2.3,  999.0,   -2.1,   -1.6,   -0.4,    0.7,    1.7,    2.7,    3.5,    3.6,    2.9,    2.2,    1.5,    0.7,    0.3,   -0.4,   -0.9,   -0.8,   -0.3,    0.2,    0.7,    0.7,    0.5,    0.1,   -0.2,    0.2,    0.9,    1.2,    1.1,    0.9,    0.8,    0.3,   -0.8,  999.0,  999.0,  999.0,  999.0,  999.0,  999.0,  999.0,  999.0,  999.0,  999.0,  999.0,  999.0,  999.0,  999.0,  999.0,  999.0,  999.0,  999.0
2011/01/10 21:50,  999.0,  999.0,  999.0,  999.0,  999.0,   -2.0,  999.0,  999.0,   -4.1,   -5.2,   -4.1,   -7.1,   -6.8,   -5.2,   -5.1,   -3.4,   -2.0,   -4.3,   -5.7,   -4.9,   -6.3,   -7.7,   -7.5,   -7.4,   -7.7,   -7.3,  999.0,  999.0,  999.0,  999.0,  999.0,  999.0,  999.0,  999.0,  999.0,  999.0,  999.0,  999.0,  999.0,  999.0,  999.0,  999.0,  999.0,  999.0,  999.0,  999.0,  999.0,  999.0,  999.0,   -2.4,   -1.9,   -1.2,    0.1,    1.9,    2.9,    2.8,    2.4,    2.4,    2.3,    1.5,    0.7,   -0.2,   -0.6,   -0.4,    0.3,    0.7,    1.0,    1.3,    1.1,    0.5,    0.3,   -1.0,   -0.7,   -0.9,   -1.2,   -0.8,   -1.0,   -1.5,   -1.6,   -1.7,   -1.3,   -0.9,   -0.5,   -0.3,   -0.5,   -0.6,  999.0,   -0.8,  999.0,  999.0,  999.0,  999.0,  999.0,  999.0,  999.0,  999.0,  999.0,  999.0
2011/01/10 22:00,  999.0,  999.0,   -6.9,   -7.6,  999.0,  999.0,  999.0,  999.0,   -4.4,   -3.6,  999.0,  999.0,  999.0,  999.0,  999.0,  999.0,  999.0,  999.0,  999.0,  999.0,  999.0,   -2.4,   -2.8,   -3.0,   -2.7,   -3.3,   -3.6,   -3.9,   -7.1,   -7.9,  999.0,  999.0,   -5.0,   -5.7,   -6.2,   -5.7,   -5.2,   -4.4,   -5.2,   -4.9,   -5.0,   -5.3,   -4.8,   -4.0,   -2.7,  999.0,  999.0,  999.0,   -0.1,   -0.4,   -0.1,    0.4,    1.5,    2.1,    2.2,    1.7,    1.1,    1.4,    0.9,   -0.1,   -0.9,   -1.5,   -2.0,   -1.7,   -1.3,   -0.6,   -0.3,   -0.0,    0.5,    0.5,    0.1,   -0.3,   -0.7,   -1.0,   -1.3,   -1.8,   -2.3,   -2.8,   -2.9,   -3.1,   -3.0,   -2.4,   -1.8,   -1.4,   -1.3,   -1.1,   -1.0,   -0.8,   -0.7,   -0.1,  999.0,  999.0,  999.0,  999.0,  999.0,  999.0,  999.0,  999.0
2011/01/10 22:10,  999.0,  999.0,   -6.4,   -7.2,  999.0,  999.0,   -6.3,  999.0,   -4.0,   -3.5,   -3.1,  999.0,  999.0,  999.0,   -8.5,   -8.7,  999.0,  999.0,  999.0,   -2.6,  999.0,   -2.2,   -3.5,   -3.3,   -2.4,   -3.6,   -2.9,   -3.9,   -4.2,   -4.7,   -5.1,   -6.4,   -7.2,   -7.5,   -7.7,   -7.9,   -7.5,   -7.0,   -7.0,   -8.5,   -7.9,   -7.4,   -6.7,   -5.0,  999.0,  999.0,  999.0,   -1.3,   -0.5,   -0.5,    0.7,    1.7,    2.4,    2.7,    2.2,    1.5,    1.1,    0.7,    0.2,   -0.3,   -0.8,   -1.1,   -1.6,   -1.8,   -1.4,   -1.2,   -1.2,   -1.2,   -0.9,   -0.6,   -0.5,   -0.8,   -1.1,   -1.5,   -1.8,   -2.4,   -3.0,   -3.6,   -4.0,   -4.5,   -4.6,   -4.3,   -3.6,  999.0,  999.0,   -0.9,   -0.8,   -0.1,    0.2,    0.8,    1.1,    1.4,    1.7,    2.0,    2.2,  999.0,  999.0,    1.7
2011/01/10 22:20,  999.0,  999.0,  999.0,  999.0,  999.0,   -8.1,   -7.2,   -7.4,   -5.9,   -3.7,   -2.9,   -3.1,   -4.2,   -3.2,   -1.8,   -2.4,   -2.7,   -2.5,   -2.8,   -4.1,   -3.5,   -3.1,   -2.8,   -3.0,   -3.5,   -3.6,   -4.2,   -3.2,   -4.7,   -5.3,   -5.8,   -7.2,   -6.9,   -7.2,   -6.7,   -7.2,   -7.3,   -7.8,   -8.6,   -7.4,   -6.7,   -6.5,   -5.8,   -3.9,  999.0,  999.0,  999.0,   -0.4,   -0.0,    1.2,    2.0,    2.3,    2.2,    1.9,    2.0,    1.9,    1.5,    0.6,   -0.1,   -1.0,   -1.7,   -2.0,   -2.0,   -1.8,   -1.7,   -1.5,   -1.4,   -1.6,   -1.6,   -1.7,   -2.0,   -2.2,   -2.5,   -2.6,   -2.3,   -2.5,   -3.2,   -3.7,   -4.0,   -4.3,   -4.3,   -3.4,   -2.6,   -1.4,   -0.3,    0.4,    0.4,    0.5,    0.7,    0.7,    0.9,    0.8,    0.6,    0.6,    0.8,    0.7,    0.9,    1.2
2011/01/10 22:30,   -4.2,   -5.8,   -7.3,   -8.2,   -8.6,   -8.5,   -7.2,   -7.3,   -5.8,   -3.6,   -3.4,   -3.6,   -4.3,   -3.6,   -2.1,   -1.8,   -1.9,   -2.1,   -2.5,   -1.7,   -1.3,   -0.8,   -1.1,   -1.5,   -1.8,   -1.7,   -1.9,   -1.3,   -2.1,   -2.9,   -4.1,   -4.5,   -4.2,   -4.4,   -4.3,   -4.5,   -4.8,   -5.1,   -5.2,   -5.6,   -5.8,   -4.9,   -3.8,   -2.6,  999.0,  999.0,  999.0,    1.1,    2.1,    3.2,    3.5,    3.2,    2.5,    2.3,    2.1,    1.4,    0.5,   -0.0,   -0.6,   -1.4,   -2.0,   -2.4,   -2.6,   -2.6,   -2.7,   -2.6,   -2.5,   -2.5,   -2.6,   -2.8,   -2.8,   -2.7,   -2.7,   -3.1,   -3.4,   -3.4,   -3.3,   -3.0,   -3.0,   -3.3,   -3.6,   -3.7,   -3.5,   -3.0,   -2.0,   -1.0,   -0.7,   -0.7,   -0.6,   -0.5,   -0.3,    0.1,    0.5,    0.8,    0.9,    0.8,    1.1,    1.4
2011/01/10 22:40,   -5.0,   -6.5,   -8.0,   -8.4,   -9.1,   -9.1,   -8.5,   -7.4,   -6.6,   -5.6,   -4.8,   -4.0,   -3.8,   -3.4,   -3.1,   -2.1,   -1.9,   -3.1,   -2.2,   -2.0,   -2.4,   -1.9,   -1.7,   -1.9,   -2.1,   -2.5,   -2.0,   -1.8,   -2.1,   -2.2,   -3.2,   -4.0,   -4.1,   -4.4,   -4.7,   -4.7,   -4.5,   -4.4,   -5.2,   -5.3,   -4.2,   -3.1,   -1.9,   -2.1,   -0.8,  999.0,  999.0,    1.8,    2.9,    3.0,    2.7,    2.2,    1.6,    0.9,    0.2,   -0.5,   -0.9,   -1.4,   -1.9,   -2.2,   -2.5,   -2.9,   -3.1,   -3.1,   -3.3,   -3.3,   -3.3,   -3.2,   -3.3,   -3.4,   -3.4,   -3.2,   -3.0,   -2.8,   -2.8,   -2.8,   -2.8,   -2.8,   -2.7,   -2.8,   -3.2,   -3.5,   -3.6,   -3.7,   -3.8,   -3.5,   -3.0,   -2.5,   -2.1,   -1.6,   -1.3,   -1.0,   -0.3,    0.6,    1.0,    0.7,    0.7,    0.9
2011/01/10 22:50,   -6.2,   -7.3,   -8.3,   -8.2,   -9.0,   -9.1,   -8.3,   -7.1,   -5.8,   -4.5,   -3.6,   -2.7,   -2.7,   -2.3,   -1.4,   -1.7,   -1.5,   -1.7,   -1.8,   -1.5,   -1.3,   -1.0,   -0.7,   -1.3,   -2.0,   -1.2,   -1.3,   -0.7,   -1.4,   -1.4,   -2.5,   -2.9,   -3.1,   -3.4,   -3.3,   -3.1,   -3.7,   -4.1,   -4.7,   -3.7,   -2.7,   -1.7,   -1.3,   -1.5,  999.0,  999.0,  999.0,    3.1,    3.2,    2.2,    1.6,    0.8,   -0.1,   -0.9,   -1.5,   -2.0,   -2.5,   -2.8,   -2.9,   -3.2,   -3.2,   -3.3,   -3.0,   -3.0,   -2.9,   -2.9,   -2.9,   -3.0,   -2.9,   -3.0,   -2.9,   -2.8,   -2.8,   -2.8,   -2.8,   -2.6,   -2.6,   -2.5,   -2.7,   -2.8,   -2.8,   -3.0,   -3.1,   -3.0,   -3.0,   -3.0,   -3.2,   -3.0,   -2.6,   -2.4,   -1.6,   -0.7,    0.1,    0.7,    1.1,    1.0,    0.9,    0.9
2011/01/10 23:00,   -6.1,   -7.8,   -8.4,   -8.0,   -8.0,   -9.0,   -8.7,   -7.7,   -6.3,   -5.2,   -4.5,   -3.0,   -2.6,   -2.3,   -1.6,   -1.5,   -1.7,   -1.6,   -1.5,   -1.5,   -1.1,   -1.1,   -1.6,   -2.4,   -2.8,   -2.5,   -1.4,   -1.3,   -2.0,   -2.3,   -3.0,   -3.5,   -3.8,   -4.1,   -4.1,   -4.6,   -5.0,   -4.6,   -3.2,   -2.9,   -2.7,   -2.0,   -1.5,    1.3,  999.0,  999.0,  999.0,    1.7,    1.3,    0.5,   -0.3,   -1.6,   -2.5,   -2.7,   -2.6,   -2.9,   -2.8,   -2.5,   -2.1,   -2.0,   -1.8,   -1.6,   -1.4,   -1.5,   -1.7,   -1.9,   -2.0,   -2.1,   -1.9,   -1.6,   -1.3,   -0.6,    0.1,    0.3,    0.2,   -0.1,   -0.1,   -0.3,   -0.4,   -0.5,   -0.5,   -0.6,   -0.7,   -1.0,   -1.2,   -1.2,   -1.3,   -1.2,   -1.1,   -1.0,   -0.8,   -0.6,   -0.2,    0.2,    0.7,    0.8,    0.9,    0.8
2011/01/10 23:10,   -5.6,   -7.5,   -8.1,   -7.9,   -7.6,   -8.0,   -8.5,   -7.3,   -5.9,   -4.6,   -4.0,   -3.2,   -2.8,   -2.6,   -2.2,   -1.7,   -1.2,   -0.9,   -0.8,   -0.7,   -0.4,   -0.3,   -0.3,   -1.2,   -1.0,   -1.2,   -0.2,   -0.7,   -0.6,   -0.8,   -1.4,   -1.5,   -1.4,   -2.1,   -1.9,   -2.1,   -2.4,   -1.8,   -0.6,   -1.1,   -1.0,   -0.4,  999.0,    0.6,  999.0,  999.0,   -0.4,    0.0,   -0.3,   -0.8,   -2.1,   -3.0,   -3.8,   -4.2,   -4.2,   -4.0,   -3.8,   -3.5,   -3.0,   -2.5,   -2.2,   -2.1,   -2.1,   -2.4,   -2.8,   -3.1,   -3.2,   -3.1,   -2.6,   -2.1,   -1.3,   -0.7,    0.7,    1.3,    1.3,    1.1,    2.2,    2.2,    2.0,    2.0,    2.2,    2.4,    2.2,    2.0,    1.8,    1.4,    1.0,    0.7,    0.4,    0.1,    0.1,   -0.0,    0.2,    0.8,    1.1,    1.1,    1.2,    1.2
2011/01/10 23:20,   -5.7,   -7.9,   -8.6,   -8.1,   -7.8,   -8.1,   -8.4,   -8.2,   -7.0,   -6.4,   -5.3,   -4.6,   -3.7,   -3.6,   -3.3,   -2.8,   -2.0,   -2.0,   -1.7,   -2.1,   -2.2,   -2.5,   -2.6,   -3.3,   -3.1,   -2.3,   -2.6,   -1.9,   -2.6,   -3.4,   -4.1,   -3.9,   -3.8,   -4.8,   -4.3,   -4.2,   -3.4,   -2.5,   -2.4,   -1.5,   -1.1,   -1.1,   -0.6,   -0.5,  999.0,  999.0,  999.0,   -1.4,   -2.8,   -4.0,   -4.8,   -5.1,   -4.9,   -5.2,   -5.4,   -5.3,   -5.2,   -5.3,   -5.4,   -5.5,   -5.5,   -5.8,   -5.3,   -5.0,   -4.6,   -4.4,   -3.9,   -3.7,   -3.7,  999.0,  999.0,  999.0,  999.0,  999.0,  999.0,  999.0,  999.0,    2.1,    2.5,    1.9,    2.2,    2.3,    2.3,    2.2,    2.3,    2.1,    2.0,    1.7,    1.7,    1.2,    0.9,    0.9,    1.0,  999.0,  999.0,    1.9,  999.0,  999.0
2011/01/10 23:30,   -5.9,   -7.6,   -8.4,   -8.2,   -7.6,   -7.6,   -8.0,   -8.2,   -7.2,   -6.8,   -5.3,   -4.2,   -4.3,   -4.1,   -3.4,   -2.8,   -2.4,   -2.2,   -1.7,   -2.2,   -2.1,   -2.2,   -2.5,   -2.6,   -2.1,   -2.5,   -2.6,   -2.2,   -1.9,   -3.0,   -3.0,   -3.5,   -4.3,   -5.0,   -4.2,   -3.3,   -2.6,   -1.8,   -0.4,    0.4,   -0.1,    0.9,  999.0,   -0.4,   -2.2,   -1.7,  999.0,   -2.9,   -4.1,   -4.9,   -5.2,   -5.2,   -4.9,   -5.3,   -5.8,   -6.1,   -6.1,   -6.3,   -6.3,   -6.2,   -6.0,   -5.9,   -5.7,   -5.2,   -5.1,   -4.7,  999.0,  999.0,  999.0,  999.0,  999.0,  999.0,  999.0,  999.0,  999.0,  999.0,  999.0,  999.0,  999.0,    2.4,    2.1,    2.1,    2.2,    2.5,    2.8,    2.9,    2.7,    2.4,    2.2,    2.3,    2.3,    2.3,    2.3,    2.3,  999.0,  999.0,  999.0,  999.0
2011/01/10 23:40,   -5.7,   -7.6,   -8.6,   -8.3,   -7.6,   -7.4,   -7.5,   -7.5,   -7.4,   -6.4,   -5.4,   -4.6,   -4.9,   -4.6,   -4.1,   -3.6,   -3.2,   -2.6,   -2.6,   -2.5,   -2.4,   -2.0,   -2.1,   -2.4,   -1.7,   -1.5,   -1.2,   -0.8,  999.0,  999.0,  999.0,  999.0,  999.0,  999.0,  999.0,  999.0,  999.0,  999.0,  999.0,  999.0,  999.0,  999.0,  999.0,  999.0,  999.0,   -0.7,   -2.7,   -2.9,   -3.9,   -4.3,   -4.4,   -4.2,   -4.4,   -4.7,   -5.1,   -5.1,   -5.2,   -5.1,   -5.0,   -4.6,   -4.4,   -4.7,   -4.8,   -4.4,  999.0,  999.0,  999.0,  999.0,  999.0,  999.0,  999.0,  999.0,  999.0,  999.0,  999.0,  999.0,  999.0,    2.2,    2.3,    1.5,    1.4,    1.2,    1.8,    2.2,    2.5,    3.0,    2.9,    2.3,    2.5,    2.8,    2.9,    3.1,    3.0,    3.2,    3.5,    3.8,  999.0,  999.0
2011/01/10 23:50,   -6.2,   -7.9,   -8.6,   -8.4,   -8.6,   -7.9,   -7.5,   -7.5,   -7.7,   -7.0,   -6.8,   -5.6,   -4.5,   -4.4,   -4.1,   -3.3,   -3.2,   -3.2,   -3.0,   -3.1,   -3.2,   -2.0,   -2.7,   -2.7,   -2.4,   -2.4,   -2.6,   -2.8,   -3.3,   -2.4,  999.0,  999.0,  999.0,   -3.9,  999.0,  999.0,  999.0,  999.0,  999.0,  999.0,  999.0,  999.0,  999.0,  999.0,  999.0,  999.0,  999.0,  999.0,  999.0,   -3.9,   -3.3,   -3.0,   -3.0,   -3.0,   -3.3,   -3.3,   -4.3,  999.0,  999.0,  999.0,  999.0,  999.0,  999.0,  999.0,  999.0,  999.0,  999.0,  999.0,  999.0,  999.0,  999.0,  999.0,   -0.2,  999.0,  999.0,  999.0,  999.0,  999.0,  999.0,  999.0,  999.0,  999.0,  999.0,    2.5,    3.1,    3.6,    3.6,    3.4,    2.9,    3.0,    3.2,    3.4,    3.8,    3.7,    3.8,    3.7,    4.5,    4.7
